Wetterdaten: Montag, 11.01.2016
Datum Zeit Temp. Aussen Temp. o. S. +5cm Feuchte Auss BlattFeu 1 Luftdruck Regen Sonnenschein Regendauer Solar Windben Empfang
11.01.2016 00:00 4,9 C 4,4 C 2,8 C 93 % 1 lf 992,3 hPa 0,0 l/m 0 min 0 min 0 W/m 12,6 km/h (3 Bft) 93,62 %
11.01.2016 00:02 4,9 C 4,4 C 2,8 C 93 % 1 lf 992,3 hPa 0,0 l/m 0 min 0 min 0 W/m 14,6 km/h (3 Bft) 95,00 %
11.01.2016 00:04 4,9 C 4,4 C 2,8 C 93 % 1 lf 992,4 hPa 0,0 l/m 0 min 0 min 0 W/m 12,6 km/h (3 Bft) 93,62 %
11.01.2016 00:06 4,9 C 4,4 C 2,8 C 93 % 0 lf 992,4 hPa 0,0 l/m 0 min 0 min 0 W/m 23,0 km/h (4 Bft) 91,30 %
11.01.2016 00:08 4,9 C 4,4 C 2,8 C 93 % 0 lf 992,4 hPa 0,0 l/m 0 min 0 min 0 W/m 18,8 km/h (3 Bft) 97,87 %
11.01.2016 00:10 4,9 C 4,4 C 2,8 C 93 % 0 lf 992,4 hPa 0,0 l/m 0 min 0 min 0 W/m 20,9 km/h (4 Bft) 100,00 %
11.01.2016 00:12 4,9 C 4,4 C 2,8 C 93 % 0 lf 992,4 hPa 0,0 l/m 0 min 0 min 5 W/m 18,8 km/h (3 Bft) 100,00 %
11.01.2016 00:14 4,9 C 4,4 C 2,8 C 93 % 0 lf 992,5 hPa 0,0 l/m 0 min 0 min 5 W/m 12,6 km/h (3 Bft) 100,00 %
11.01.2016 00:16 4,9 C 4,4 C 2,8 C 93 % 0 lf 992,5 hPa 0,0 l/m 0 min 0 min 5 W/m 20,9 km/h (4 Bft) 97,87 %
11.01.2016 00:18 4,8 C 4,4 C 2,8 C 93 % 0 lf 992,5 hPa 0,0 l/m 0 min 0 min 5 W/m 16,7 km/h (3 Bft) 100,00 %
11.01.2016 00:20 4,8 C 4,4 C 2,8 C 93 % 0 lf 992,5 hPa 0,0 l/m 0 min 0 min 5 W/m 16,7 km/h (3 Bft) 97,87 %
11.01.2016 00:22 4,8 C 4,4 C 2,8 C 93 % 0 lf 992,4 hPa 0,0 l/m 0 min 0 min 5 W/m 8,4 km/h (2 Bft) 100,00 %
11.01.2016 00:24 4,8 C 4,4 C 2,8 C 93 % 0 lf 992,4 hPa 0,0 l/m 0 min 0 min 5 W/m 14,6 km/h (3 Bft) 97,87 %
11.01.2016 00:26 4,8 C 4,4 C 2,8 C 93 % 0 lf 992,3 hPa 0,0 l/m 0 min 0 min 5 W/m 14,6 km/h (3 Bft) 100,00 %
11.01.2016 00:28 4,8 C 4,4 C 2,8 C 93 % 0 lf 992,3 hPa 0,0 l/m 0 min 0 min 5 W/m 10,5 km/h (2 Bft) 95,74 %
11.01.2016 00:30 4,8 C 4,4 C 2,8 C 93 % 1 lf 992,3 hPa 0,0 l/m 0 min 0 min 5 W/m 14,6 km/h (3 Bft) 93,48 %
11.01.2016 00:32 4,7 C 4,4 C 2,8 C 94 % 1 lf 992,2 hPa 0,0 l/m 0 min 0 min 5 W/m 10,5 km/h (2 Bft) 93,62 %
11.01.2016 00:34 4,7 C 4,4 C 2,8 C 94 % 1 lf 992,2 hPa 0,0 l/m 0 min 0 min 5 W/m 12,6 km/h (3 Bft) 97,87 %
11.01.2016 00:36 4,7 C 4,4 C 2,8 C 94 % 1 lf 992,3 hPa 0,0 l/m 0 min 0 min 5 W/m 12,6 km/h (3 Bft) 100,00 %
11.01.2016 00:38 4,7 C 4,4 C 2,8 C 94 % 1 lf 992,2 hPa 0,0 l/m 0 min 0 min 5 W/m 12,6 km/h (3 Bft) 97,87 %
11.01.2016 00:40 4,7 C 4,4 C 2,8 C 94 % 1 lf 992,3 hPa 0,0 l/m 0 min 0 min 5 W/m 10,5 km/h (2 Bft) 97,87 %
11.01.2016 00:42 4,7 C 4,4 C 2,8 C 94 % 1 lf 992,2 hPa 0,0 l/m 0 min 0 min 5 W/m 14,6 km/h (3 Bft) 93,48 %
11.01.2016 00:44 4,7 C 4,4 C 2,8 C 94 % 1 lf 992,2 hPa 0,0 l/m 0 min 0 min 5 W/m 10,5 km/h (2 Bft) 95,74 %
11.01.2016 00:46 4,7 C 4,4 C 2,8 C 94 % 1 lf 992,1 hPa 0,0 l/m 0 min 0 min 5 W/m 12,6 km/h (3 Bft) 95,74 %
11.01.2016 00:48 4,7 C 4,4 C 2,8 C 94 % 1 lf 992,1 hPa 0,0 l/m 0 min 0 min 5 W/m 8,4 km/h (2 Bft) 95,74 %
11.01.2016 00:50 4,7 C 4,4 C 2,2 C 94 % 1 lf 992,1 hPa 0,0 l/m 0 min 0 min 5 W/m 8,4 km/h (2 Bft) 97,87 %
11.01.2016 00:52 4,7 C 4,4 C 2,2 C 94 % 1 lf 992,0 hPa 0,0 l/m 0 min 0 min 5 W/m 6,3 km/h (2 Bft) 95,65 %
11.01.2016 00:54 4,6 C 3,9 C 2,2 C 94 % 1 lf 992,0 hPa 0,0 l/m 0 min 0 min 4 W/m 4,2 km/h (1 Bft) 95,74 %
11.01.2016 00:56 4,6 C 3,9 C 2,2 C 93 % 1 lf 992,0 hPa 0,0 l/m 0 min 0 min 0 W/m 6,3 km/h (2 Bft) 95,74 %
11.01.2016 00:58 4,6 C 3,9 C 2,2 C 93 % 1 lf 992,1 hPa 0,0 l/m 0 min 0 min 0 W/m 4,2 km/h (1 Bft) 97,87 %
11.01.2016 01:00 4,6 C 3,9 C 1,7 C 93 % 1 lf 992,1 hPa 0,0 l/m 0 min 0 min 1 W/m 6,3 km/h (2 Bft) 93,62 %
11.01.2016 01:02 4,6 C 3,9 C 1,7 C 93 % 1 lf 992,1 hPa 0,0 l/m 0 min 0 min 4 W/m 6,3 km/h (2 Bft) 95,74 %
11.01.2016 01:04 4,5 C 3,9 C 1,7 C 93 % 1 lf 992,2 hPa 0,0 l/m 0 min 0 min 1 W/m 6,3 km/h (2 Bft) 97,83 %
11.01.2016 01:06 4,5 C 3,9 C 1,7 C 93 % 1 lf 992,2 hPa 0,0 l/m 0 min 0 min 1 W/m 4,2 km/h (1 Bft) 97,87 %
11.01.2016 01:08 4,4 C 3,3 C 1,7 C 93 % 1 lf 992,1 hPa 0,0 l/m 0 min 0 min 0 W/m 6,3 km/h (2 Bft) 100,00 %
11.01.2016 01:10 4,4 C 3,3 C 1,7 C 93 % 2 lf 992,0 hPa 0,0 l/m 0 min 0 min 0 W/m 6,3 km/h (2 Bft) 93,62 %
11.01.2016 01:12 4,4 C 3,3 C 1,7 C 93 % 2 lf 992,1 hPa 0,0 l/m 0 min 0 min 0 W/m 6,3 km/h (2 Bft) 100,00 %
11.01.2016 01:14 4,3 C 3,3 C 1,7 C 93 % 2 lf 992,1 hPa 0,0 l/m 0 min 0 min 0 W/m 6,3 km/h (2 Bft) 95,74 %
11.01.2016 01:16 4,3 C 3,3 C 1,7 C 93 % 2 lf 992,1 hPa 0,0 l/m 0 min 0 min 0 W/m 4,2 km/h (1 Bft) 100,00 %
11.01.2016 01:18 4,2 C 3,3 C 1,7 C 93 % 2 lf 992,2 hPa 0,0 l/m 0 min 0 min 0 W/m 8,4 km/h (2 Bft) 97,87 %
11.01.2016 01:20 4,2 C 3,3 C 1,7 C 93 % 2 lf 992,3 hPa 0,0 l/m 0 min 0 min 0 W/m 8,4 km/h (2 Bft) 97,87 %
11.01.2016 01:22 4,2 C 3,3 C 1,7 C 93 % 2 lf 992,3 hPa 0,0 l/m 0 min 0 min 0 W/m 8,4 km/h (2 Bft) 100,00 %
11.01.2016 01:24 4,2 C 3,3 C 1,7 C 93 % 2 lf 992,3 hPa 0,0 l/m 0 min 0 min 0 W/m 8,4 km/h (2 Bft) 100,00 %
11.01.2016 01:26 4,1 C 3,3 C 1,7 C 93 % 2 lf 992,2 hPa 0,0 l/m 0 min 0 min 0 W/m 6,3 km/h (2 Bft) 95,74 %
11.01.2016 01:28 4,1 C 3,3 C 1,7 C 93 % 3 lf 992,2 hPa 0,0 l/m 0 min 0 min 0 W/m 10,5 km/h (2 Bft) 95,65 %
11.01.2016 01:30 4,1 C 3,3 C 1,7 C 93 % 3 lf 992,2 hPa 0,0 l/m 0 min 0 min 0 W/m 8,4 km/h (2 Bft) 97,87 %
11.01.2016 01:32 4,0 C 3,3 C 1,7 C 93 % 3 lf 992,2 hPa 0,0 l/m 0 min 0 min 0 W/m 10,5 km/h (2 Bft) 100,00 %
11.01.2016 01:34 4,0 C 3,3 C 1,7 C 93 % 3 lf 992,2 hPa 0,0 l/m 0 min 0 min 0 W/m 10,5 km/h (2 Bft) 100,00 %
11.01.2016 01:36 3,9 C 3,9 C 1,7 C 94 % 3 lf 992,2 hPa 0,0 l/m 0 min 0 min 0 W/m 10,5 km/h (2 Bft) 97,87 %
11.01.2016 01:38 3,9 C 3,3 C 1,7 C 94 % 3 lf 992,2 hPa 0,0 l/m 0 min 0 min 0 W/m 8,4 km/h (2 Bft) 97,87 %
11.01.2016 01:40 3,9 C 3,3 C 1,7 C 94 % 3 lf 992,1 hPa 0,0 l/m 0 min 0 min 0 W/m 8,4 km/h (2 Bft) 100,00 %
11.01.2016 01:42 3,9 C 3,3 C 1,7 C 93 % 3 lf 992,1 hPa 0,0 l/m 0 min 0 min 0 W/m 6,3 km/h (2 Bft) 97,87 %
11.01.2016 01:44 3,9 C 3,3 C 1,7 C 93 % 3 lf 992,1 hPa 0,0 l/m 0 min 0 min 0 W/m 8,4 km/h (2 Bft) 100,00 %
11.01.2016 01:46 3,9 C 3,9 C 1,7 C 93 % 3 lf 992,0 hPa 0,0 l/m 0 min 0 min 0 W/m 8,4 km/h (2 Bft) 97,87 %
11.01.2016 01:48 3,8 C 3,3 C 1,7 C 94 % 3 lf 992,0 hPa 0,0 l/m 0 min 0 min 0 W/m 8,4 km/h (2 Bft) 97,87 %
11.01.2016 01:50 3,8 C 3,3 C 1,7 C 94 % 3 lf 992,0 hPa 0,0 l/m 0 min 0 min 0 W/m 8,4 km/h (2 Bft) 100,00 %
11.01.2016 01:52 3,8 C 3,3 C 1,7 C 94 % 3 lf 992,0 hPa 0,0 l/m 0 min 0 min 0 W/m 6,3 km/h (2 Bft) 97,83 %
11.01.2016 01:54 3,8 C 3,3 C 1,7 C 94 % 3 lf 992,0 hPa 0,0 l/m 0 min 0 min 0 W/m 8,4 km/h (2 Bft) 97,87 %
11.01.2016 01:56 3,8 C 3,3 C 1,7 C 94 % 3 lf 992,0 hPa 0,0 l/m 0 min 0 min 0 W/m 8,4 km/h (2 Bft) 97,87 %
11.01.2016 01:58 3,7 C 3,3 C 1,1 C 94 % 3 lf 991,9 hPa 0,0 l/m 0 min 0 min 0 W/m 8,4 km/h (2 Bft) 95,74 %
11.01.2016 02:00 3,7 C 3,3 C 1,1 C 94 % 3 lf 991,9 hPa 0,0 l/m 0 min 0 min 0 W/m 6,3 km/h (2 Bft) 89,36 %
11.01.2016 02:02 3,7 C 3,3 C 1,7 C 94 % 3 lf 991,8 hPa 0,0 l/m 0 min 0 min 0 W/m 8,4 km/h (2 Bft) 95,65 %
11.01.2016 02:04 3,7 C 3,3 C 1,7 C 94 % 3 lf 991,8 hPa 0,0 l/m 0 min 0 min 0 W/m 8,4 km/h (2 Bft) 93,62 %
11.01.2016 02:06 3,7 C 3,3 C 1,7 C 94 % 3 lf 991,7 hPa 0,0 l/m 0 min 0 min 0 W/m 8,4 km/h (2 Bft) 93,62 %
11.01.2016 02:08 3,7 C 3,3 C 1,7 C 94 % 3 lf 991,7 hPa 0,0 l/m 0 min 0 min 0 W/m 10,5 km/h (2 Bft) 93,62 %
11.01.2016 02:10 3,6 C 3,3 C 1,1 C 94 % 3 lf 991,7 hPa 0,0 l/m 0 min 0 min 0 W/m 8,4 km/h (2 Bft) 93,62 %
11.01.2016 02:12 3,6 C 3,3 C 1,7 C 94 % 3 lf 991,6 hPa 0,0 l/m 0 min 0 min 0 W/m 8,4 km/h (2 Bft) 95,74 %
11.01.2016 02:14 3,6 C 3,3 C 1,7 C 94 % 3 lf 991,7 hPa 0,0 l/m 0 min 0 min 0 W/m 12,6 km/h (3 Bft) 93,48 %
11.01.2016 02:16 3,6 C 3,3 C 1,7 C 94 % 3 lf 991,7 hPa 0,0 l/m 0 min 0 min 0 W/m 10,5 km/h (2 Bft) 93,62 %
11.01.2016 02:18 3,5 C 3,3 C 1,7 C 94 % 4 lf 991,6 hPa 0,0 l/m 0 min 0 min 0 W/m 8,4 km/h (2 Bft) 93,62 %
11.01.2016 02:20 3,5 C 3,3 C 1,7 C 94 % 4 lf 991,7 hPa 0,0 l/m 0 min 0 min 0 W/m 8,4 km/h (2 Bft) 95,74 %
11.01.2016 02:22 3,5 C 3,3 C 1,7 C 94 % 4 lf 991,7 hPa 0,0 l/m 0 min 0 min 0 W/m 10,5 km/h (2 Bft) 91,49 %
11.01.2016 02:24 3,5 C 3,3 C 1,7 C 94 % 4 lf 991,7 hPa 0,0 l/m 0 min 0 min 0 W/m 14,6 km/h (3 Bft) 93,62 %
11.01.2016 02:26 3,5 C 3,3 C 1,7 C 94 % 4 lf 991,7 hPa 0,0 l/m 0 min 0 min 0 W/m 12,6 km/h (3 Bft) 95,65 %
11.01.2016 02:28 3,5 C 3,3 C 1,7 C 94 % 4 lf 991,7 hPa 0,0 l/m 0 min 0 min 0 W/m 10,5 km/h (2 Bft) 91,49 %
11.01.2016 02:30 3,5 C 3,9 C 1,7 C 94 % 4 lf 991,7 hPa 0,0 l/m 0 min 0 min 0 W/m 14,6 km/h (3 Bft) 89,36 %
11.01.2016 02:32 3,5 C 3,9 C 1,7 C 94 % 4 lf 991,7 hPa 0,0 l/m 0 min 0 min 0 W/m 12,6 km/h (3 Bft) 93,62 %
11.01.2016 02:34 3,5 C 3,3 C 1,7 C 94 % 4 lf 991,7 hPa 0,0 l/m 0 min 0 min 0 W/m 10,5 km/h (2 Bft) 95,74 %
11.01.2016 02:36 3,5 C 3,3 C 1,7 C 94 % 4 lf 991,7 hPa 0,0 l/m 0 min 0 min 0 W/m 10,5 km/h (2 Bft) 95,74 %
11.01.2016 02:38 3,5 C 3,3 C 1,7 C 94 % 4 lf 991,7 hPa 0,0 l/m 0 min 0 min 0 W/m 10,5 km/h (2 Bft) 93,48 %
11.01.2016 02:40 3,5 C 3,3 C 1,7 C 94 % 4 lf 991,7 hPa 0,0 l/m 0 min 0 min 0 W/m 12,6 km/h (3 Bft) 93,62 %
11.01.2016 02:42 3,4 C 3,3 C 1,7 C 94 % 4 lf 991,7 hPa 0,0 l/m 0 min 0 min 0 W/m 12,6 km/h (3 Bft) 95,74 %
11.01.2016 02:44 3,5 C 3,9 C 1,7 C 94 % 4 lf 991,7 hPa 0,0 l/m 0 min 0 min 0 W/m 10,5 km/h (2 Bft) 95,74 %
11.01.2016 02:46 3,5 C 3,9 C 1,7 C 94 % 4 lf 991,7 hPa 0,0 l/m 0 min 0 min 0 W/m 16,7 km/h (3 Bft) 95,74 %
11.01.2016 02:48 3,5 C 3,9 C 1,7 C 94 % 4 lf 991,7 hPa 0,0 l/m 0 min 0 min 0 W/m 12,6 km/h (3 Bft) 95,74 %
11.01.2016 02:50 3,5 C 3,3 C 1,7 C 94 % 4 lf 991,7 hPa 0,0 l/m 0 min 0 min 0 W/m 10,5 km/h (2 Bft) 89,13 %
11.01.2016 02:52 3,4 C 3,9 C 1,7 C 94 % 4 lf 991,7 hPa 0,0 l/m 0 min 0 min 0 W/m 12,6 km/h (3 Bft) 95,74 %
11.01.2016 02:54 3,4 C 3,3 C 1,7 C 94 % 4 lf 991,7 hPa 0,0 l/m 0 min 0 min 0 W/m 10,5 km/h (2 Bft) 95,74 %
11.01.2016 02:56 3,5 C 3,9 C 1,7 C 94 % 4 lf 991,7 hPa 0,0 l/m 0 min 0 min 0 W/m 16,7 km/h (3 Bft) 97,87 %
11.01.2016 02:58 3,5 C 3,9 C 1,7 C 95 % 3 lf 991,6 hPa 0,0 l/m 0 min 0 min 0 W/m 14,6 km/h (3 Bft) 95,74 %
11.01.2016 03:00 3,5 C 3,9 C 1,7 C 95 % 3 lf 991,6 hPa 0,0 l/m 0 min 0 min 0 W/m 16,7 km/h (3 Bft) 97,83 %
11.01.2016 03:02 3,5 C 3,9 C 1,7 C 95 % 3 lf 991,6 hPa 0,0 l/m 0 min 0 min 0 W/m 12,6 km/h (3 Bft) 93,62 %
11.01.2016 03:04 3,5 C 3,9 C 1,7 C 95 % 3 lf 991,6 hPa 0,0 l/m 0 min 0 min 0 W/m 14,6 km/h (3 Bft) 95,74 %
11.01.2016 03:06 3,5 C 3,9 C 1,7 C 95 % 3 lf 991,6 hPa 0,0 l/m 0 min 0 min 0 W/m 14,6 km/h (3 Bft) 95,74 %
11.01.2016 03:08 3,5 C 3,9 C 1,7 C 95 % 3 lf 991,6 hPa 0,0 l/m 0 min 0 min 0 W/m 12,6 km/h (3 Bft) 97,87 %
11.01.2016 03:10 3,5 C 3,9 C 1,7 C 95 % 3 lf 991,6 hPa 0,0 l/m 0 min 0 min 0 W/m 12,6 km/h (3 Bft) 97,87 %
11.01.2016 03:12 3,5 C 3,9 C 1,7 C 95 % 3 lf 991,6 hPa 0,0 l/m 0 min 0 min 0 W/m 14,6 km/h (3 Bft) 97,87 %
11.01.2016 03:14 3,5 C 3,9 C 1,7 C 95 % 2 lf 991,6 hPa 0,0 l/m 0 min 0 min 0 W/m 10,5 km/h (2 Bft) 97,83 %
11.01.2016 03:16 3,5 C 3,9 C 1,7 C 95 % 2 lf 991,5 hPa 0,0 l/m 0 min 0 min 0 W/m 14,6 km/h (3 Bft) 97,87 %
11.01.2016 03:18 3,5 C 3,9 C 1,7 C 95 % 2 lf 991,6 hPa 0,0 l/m 0 min 0 min 0 W/m 12,6 km/h (3 Bft) 93,62 %
11.01.2016 03:20 3,5 C 3,3 C 1,7 C 95 % 2 lf 991,5 hPa 0,0 l/m 0 min 0 min 0 W/m 8,4 km/h (2 Bft) 97,87 %
11.01.2016 03:22 3,5 C 3,3 C 1,7 C 95 % 2 lf 991,5 hPa 0,0 l/m 0 min 0 min 0 W/m 12,6 km/h (3 Bft) 97,87 %
11.01.2016 03:24 3,4 C 3,3 C 1,7 C 95 % 2 lf 991,5 hPa 0,0 l/m 0 min 0 min 0 W/m 10,5 km/h (2 Bft) 95,65 %
11.01.2016 03:26 3,4 C 3,9 C 1,7 C 95 % 2 lf 991,5 hPa 0,0 l/m 0 min 0 min 0 W/m 12,6 km/h (3 Bft) 97,87 %
11.01.2016 03:28 3,4 C 3,9 C 1,7 C 95 % 2 lf 991,5 hPa 0,0 l/m 0 min 0 min 0 W/m 10,5 km/h (2 Bft) 95,74 %
11.01.2016 03:30 3,4 C 3,3 C 1,7 C 95 % 2 lf 991,5 hPa 0,0 l/m 0 min 0 min 0 W/m 14,6 km/h (3 Bft) 95,74 %
11.01.2016 03:32 3,4 C 3,9 C 1,7 C 95 % 2 lf 991,5 hPa 0,0 l/m 0 min 0 min 0 W/m 12,6 km/h (3 Bft) 97,87 %
11.01.2016 03:34 3,4 C 3,9 C 1,7 C 95 % 2 lf 991,5 hPa 0,0 l/m 0 min 0 min 0 W/m 14,6 km/h (3 Bft) 97,87 %
11.01.2016 03:36 3,4 C 3,9 C 1,7 C 95 % 2 lf 991,5 hPa 0,0 l/m 0 min 0 min 0 W/m 12,6 km/h (3 Bft) 97,83 %
11.01.2016 03:38 3,4 C 3,9 C 1,7 C 95 % 1 lf 991,4 hPa 0,0 l/m 0 min 0 min 0 W/m 10,5 km/h (2 Bft) 93,62 %
11.01.2016 03:40 3,4 C 3,3 C 1,7 C 95 % 1 lf 991,4 hPa 0,0 l/m 0 min 0 min 0 W/m 10,5 km/h (2 Bft) 97,87 %
11.01.2016 03:42 3,4 C 3,3 C 1,7 C 95 % 1 lf 991,4 hPa 0,0 l/m 0 min 0 min 0 W/m 10,5 km/h (2 Bft) 91,49 %
11.01.2016 03:44 3,4 C 3,3 C 1,7 C 95 % 1 lf 991,3 hPa 0,0 l/m 0 min 0 min 0 W/m 12,6 km/h (3 Bft) 95,74 %
11.01.2016 03:46 3,4 C 3,3 C 1,7 C 95 % 1 lf 991,2 hPa 0,0 l/m 0 min 0 min 0 W/m 10,5 km/h (2 Bft) 95,74 %
11.01.2016 03:48 3,4 C 3,3 C 1,7 C 95 % 1 lf 991,2 hPa 0,0 l/m 0 min 0 min 0 W/m 10,5 km/h (2 Bft) 97,83 %
11.01.2016 03:50 3,4 C 3,3 C 1,7 C 95 % 1 lf 991,2 hPa 0,0 l/m 0 min 0 min 0 W/m 8,4 km/h (2 Bft) 95,74 %
11.01.2016 03:52 3,3 C 3,3 C 1,7 C 95 % 1 lf 991,1 hPa 0,0 l/m 0 min 0 min 0 W/m 10,5 km/h (2 Bft) 95,74 %
11.01.2016 03:54 3,3 C 3,3 C 1,7 C 95 % 1 lf 991,1 hPa 0,0 l/m 0 min 0 min 0 W/m 8,4 km/h (2 Bft) 95,74 %
11.01.2016 03:56 3,3 C 3,3 C 1,7 C 95 % 1 lf 991,2 hPa 0,0 l/m 0 min 0 min 0 W/m 10,5 km/h (2 Bft) 95,74 %
11.01.2016 03:58 3,3 C 3,3 C 1,7 C 95 % 1 lf 991,2 hPa 0,0 l/m 0 min 0 min 0 W/m 10,5 km/h (2 Bft) 97,87 %
11.01.2016 04:00 3,3 C 3,3 C 1,1 C 95 % 1 lf 991,1 hPa 0,0 l/m 0 min 0 min 0 W/m 10,5 km/h (2 Bft) 91,30 %
11.01.2016 04:05 3,2 C 3,3 C 1,1 C 95 % 1 lf 990,9 hPa 0,0 l/m 0 min 0 min 0 W/m 12,6 km/h (3 Bft) 96,00 %
11.01.2016 04:06 3,2 C 3,3 C 1,7 C 95 % 1 lf 990,9 hPa 0,0 l/m 0 min 0 min 0 W/m 8,4 km/h (2 Bft) 95,83 %
11.01.2016 04:08 3,2 C 3,3 C 1,7 C 95 % 1 lf 991,0 hPa 0,0 l/m 0 min 0 min 0 W/m 8,4 km/h (2 Bft) 97,87 %
11.01.2016 04:10 3,2 C 3,3 C 1,1 C 95 % 1 lf 990,9 hPa 0,0 l/m 0 min 0 min 0 W/m 8,4 km/h (2 Bft) 100,00 %
11.01.2016 04:12 3,2 C 2,8 C 1,1 C 95 % 1 lf 990,9 hPa 0,0 l/m 0 min 0 min 0 W/m 8,4 km/h (2 Bft) 97,83 %
11.01.2016 04:14 3,1 C 2,8 C 1,1 C 95 % 1 lf 990,8 hPa 0,0 l/m 0 min 0 min 0 W/m 8,4 km/h (2 Bft) 95,74 %
11.01.2016 04:16 3,1 C 2,8 C 1,1 C 95 % 1 lf 990,8 hPa 0,0 l/m 0 min 0 min 0 W/m 8,4 km/h (2 Bft) 89,36 %
11.01.2016 04:18 3,1 C 2,8 C 1,1 C 95 % 1 lf 990,7 hPa 0,0 l/m 0 min 0 min 0 W/m 8,4 km/h (2 Bft) 95,74 %
11.01.2016 04:20 3,1 C 2,8 C 1,1 C 95 % 1 lf 990,7 hPa 0,0 l/m 0 min 0 min 0 W/m 8,4 km/h (2 Bft) 95,74 %
11.01.2016 04:22 3,1 C 2,8 C 1,1 C 95 % 1 lf 990,6 hPa 0,0 l/m 0 min 0 min 0 W/m 8,4 km/h (2 Bft) 93,48 %
11.01.2016 04:24 3,0 C 2,8 C 1,1 C 95 % 1 lf 990,6 hPa 0,0 l/m 0 min 0 min 0 W/m 6,3 km/h (2 Bft) 91,49 %
11.01.2016 04:26 3,0 C 2,8 C 1,1 C 95 % 2 lf 990,6 hPa 0,0 l/m 0 min 0 min 0 W/m 8,4 km/h (2 Bft) 91,49 %
11.01.2016 04:28 2,9 C 2,2 C 1,1 C 95 % 2 lf 990,5 hPa 0,0 l/m 0 min 0 min 0 W/m 10,5 km/h (2 Bft) 93,62 %
11.01.2016 04:30 2,9 C 2,2 C 0,6 C 95 % 2 lf 990,5 hPa 0,0 l/m 0 min 0 min 0 W/m 6,3 km/h (2 Bft) 95,74 %
11.01.2016 04:32 2,9 C 2,2 C 0,6 C 95 % 2 lf 990,5 hPa 0,0 l/m 0 min 0 min 0 W/m 8,4 km/h (2 Bft) 95,74 %
11.01.2016 04:34 2,9 C 2,2 C 0,6 C 95 % 2 lf 990,5 hPa 0,0 l/m 0 min 0 min 0 W/m 8,4 km/h (2 Bft) 97,83 %
11.01.2016 04:36 2,8 C 2,2 C 0,6 C 94 % 2 lf 990,5 hPa 0,0 l/m 0 min 0 min 0 W/m 8,4 km/h (2 Bft) 89,36 %
11.01.2016 04:38 2,8 C 2,2 C 0,6 C 95 % 2 lf 990,5 hPa 0,0 l/m 0 min 0 min 0 W/m 6,3 km/h (2 Bft) 89,36 %
11.01.2016 04:40 2,8 C 2,2 C 0,6 C 95 % 2 lf 990,5 hPa 0,0 l/m 0 min 0 min 0 W/m 8,4 km/h (2 Bft) 95,74 %
11.01.2016 04:42 2,7 C 2,2 C 0,6 C 94 % 3 lf 990,4 hPa 0,2 l/m 0 min 0 min 0 W/m 6,3 km/h (2 Bft) 93,62 %
11.01.2016 04:44 2,7 C 2,2 C 0,6 C 94 % 3 lf 990,4 hPa 0,0 l/m 0 min 0 min 0 W/m 6,3 km/h (2 Bft) 95,74 %
11.01.2016 04:46 2,7 C 2,2 C 0,6 C 94 % 3 lf 990,4 hPa 0,0 l/m 0 min 0 min 0 W/m 10,5 km/h (2 Bft) 91,30 %
11.01.2016 04:48 2,6 C 2,2 C 0,6 C 94 % 3 lf 990,3 hPa 0,0 l/m 0 min 0 min 0 W/m 8,4 km/h (2 Bft) 97,87 %
11.01.2016 04:50 2,6 C 1,7 C 0,6 C 94 % 3 lf 990,2 hPa 0,0 l/m 0 min 0 min 0 W/m 6,3 km/h (2 Bft) 97,87 %
11.01.2016 04:52 2,6 C 1,7 C 0,0 C 94 % 3 lf 990,2 hPa 0,0 l/m 0 min 0 min 0 W/m 6,3 km/h (2 Bft) 97,87 %
11.01.2016 04:54 2,6 C 1,7 C 0,0 C 94 % 3 lf 990,1 hPa 0,0 l/m 0 min 0 min 0 W/m 10,5 km/h (2 Bft) 97,87 %
11.01.2016 04:56 2,5 C 2,2 C 0,6 C 94 % 3 lf 990,2 hPa 0,0 l/m 0 min 0 min 0 W/m 10,5 km/h (2 Bft) 97,87 %
11.01.2016 04:58 2,4 C 2,2 C 0,6 C 94 % 3 lf 990,1 hPa 0,0 l/m 0 min 0 min 0 W/m 6,3 km/h (2 Bft) 100,00 %
11.01.2016 05:00 2,4 C 2,2 C 0,6 C 94 % 3 lf 990,2 hPa 0,0 l/m 0 min 0 min 0 W/m 8,4 km/h (2 Bft) 100,00 %
11.01.2016 05:02 2,4 C 2,2 C 0,6 C 94 % 4 lf 990,2 hPa 0,0 l/m 0 min 0 min 0 W/m 8,4 km/h (2 Bft) 95,74 %
11.01.2016 05:04 2,4 C 2,2 C 0,6 C 94 % 4 lf 990,1 hPa 0,0 l/m 0 min 0 min 0 W/m 8,4 km/h (2 Bft) 95,74 %
11.01.2016 05:06 2,3 C 2,2 C 0,6 C 94 % 4 lf 990,1 hPa 0,0 l/m 0 min 0 min 0 W/m 10,5 km/h (2 Bft) 97,87 %
11.01.2016 05:08 2,3 C 2,2 C 0,6 C 94 % 4 lf 990,1 hPa 0,0 l/m 0 min 0 min 0 W/m 10,5 km/h (2 Bft) 93,62 %
11.01.2016 05:10 2,3 C 2,2 C 0,6 C 94 % 4 lf 990,1 hPa 0,0 l/m 0 min 0 min 0 W/m 8,4 km/h (2 Bft) 97,83 %
11.01.2016 05:12 2,3 C 2,2 C 0,6 C 94 % 4 lf 990,1 hPa 0,0 l/m 0 min 0 min 0 W/m 10,5 km/h (2 Bft) 97,87 %
11.01.2016 05:14 2,3 C 2,2 C 0,6 C 94 % 4 lf 990,1 hPa 0,0 l/m 0 min 0 min 0 W/m 10,5 km/h (2 Bft) 95,74 %
11.01.2016 05:16 2,2 C 2,2 C 0,6 C 94 % 4 lf 990,0 hPa 0,0 l/m 0 min 0 min 0 W/m 10,5 km/h (2 Bft) 95,74 %
11.01.2016 05:18 2,2 C 2,2 C 0,6 C 95 % 4 lf 990,0 hPa 0,0 l/m 0 min 0 min 0 W/m 10,5 km/h (2 Bft) 97,87 %
11.01.2016 05:20 2,2 C 2,2 C 0,6 C 95 % 5 lf 990,0 hPa 0,0 l/m 0 min 0 min 0 W/m 8,4 km/h (2 Bft) 91,30 %
11.01.2016 05:22 2,2 C 2,2 C 0,6 C 95 % 5 lf 990,0 hPa 0,0 l/m 0 min 0 min 0 W/m 10,5 km/h (2 Bft) 97,87 %
11.01.2016 05:24 2,2 C 2,2 C 0,6 C 95 % 5 lf 990,0 hPa 0,0 l/m 0 min 0 min 0 W/m 10,5 km/h (2 Bft) 93,62 %
11.01.2016 05:26 2,2 C 2,2 C 0,6 C 95 % 6 lf 989,9 hPa 0,0 l/m 0 min 0 min 0 W/m 10,5 km/h (2 Bft) 97,87 %
11.01.2016 05:28 2,2 C 2,2 C 0,6 C 95 % 6 lf 989,8 hPa 0,0 l/m 0 min 0 min 0 W/m 8,4 km/h (2 Bft) 97,87 %
11.01.2016 05:30 2,1 C 2,2 C 0,6 C 95 % 6 lf 989,8 hPa 0,0 l/m 0 min 0 min 0 W/m 10,5 km/h (2 Bft) 97,87 %
11.01.2016 05:32 2,1 C 2,2 C 0,6 C 95 % 6 lf 989,7 hPa 0,0 l/m 0 min 0 min 0 W/m 8,4 km/h (2 Bft) 95,65 %
11.01.2016 05:34 2,1 C 1,7 C 0,6 C 95 % 7 lf 989,7 hPa 0,0 l/m 0 min 0 min 0 W/m 8,4 km/h (2 Bft) 95,74 %
11.01.2016 05:36 2,1 C 2,2 C 0,6 C 95 % 7 lf 989,7 hPa 0,0 l/m 0 min 0 min 0 W/m 14,6 km/h (3 Bft) 89,36 %
11.01.2016 05:38 2,1 C 2,2 C 0,6 C 95 % 7 lf 989,7 hPa 0,0 l/m 0 min 0 min 0 W/m 10,5 km/h (2 Bft) 97,87 %
11.01.2016 05:40 2,1 C 2,2 C 0,6 C 95 % 8 lf 989,7 hPa 0,0 l/m 0 min 0 min 0 W/m 8,4 km/h (2 Bft) 97,87 %
11.01.2016 05:42 2,1 C 2,2 C 0,6 C 95 % 8 lf 989,6 hPa 0,0 l/m 0 min 0 min 0 W/m 8,4 km/h (2 Bft) 95,74 %
11.01.2016 05:44 2,1 C 1,7 C 0,6 C 95 % 9 lf 989,6 hPa 0,0 l/m 0 min 0 min 0 W/m 10,5 km/h (2 Bft) 97,83 %
11.01.2016 05:46 2,0 C 1,7 C 0,6 C 95 % 9 lf 989,6 hPa 0,0 l/m 0 min 0 min 0 W/m 10,5 km/h (2 Bft) 97,87 %
11.01.2016 05:48 2,0 C 1,7 C 0,6 C 95 % 9 lf 989,5 hPa 0,0 l/m 0 min 0 min 0 W/m 8,4 km/h (2 Bft) 95,74 %
11.01.2016 05:50 1,9 C 1,7 C 0,6 C 95 % 9 lf 989,5 hPa 0,0 l/m 0 min 0 min 0 W/m 12,6 km/h (3 Bft) 97,87 %
11.01.2016 05:52 1,9 C 2,2 C 0,6 C 95 % 10 lf 989,4 hPa 0,0 l/m 0 min 0 min 0 W/m 10,5 km/h (2 Bft) 91,49 %
11.01.2016 05:54 1,9 C 2,2 C 0,6 C 95 % 10 lf 989,5 hPa 0,0 l/m 0 min 0 min 0 W/m 8,4 km/h (2 Bft) 93,62 %
11.01.2016 05:56 1,9 C 2,2 C 0,6 C 95 % 10 lf 989,4 hPa 0,0 l/m 0 min 0 min 0 W/m 10,5 km/h (2 Bft) 100,00 %
11.01.2016 05:58 1,9 C 2,2 C 0,6 C 95 % 10 lf 989,3 hPa 0,0 l/m 0 min 0 min 0 W/m 10,5 km/h (2 Bft) 100,00 %
11.01.2016 06:00 1,9 C 2,2 C 0,6 C 95 % 10 lf 989,2 hPa 0,0 l/m 0 min 0 min 0 W/m 10,5 km/h (2 Bft) 93,62 %
11.01.2016 06:02 1,9 C 2,2 C 0,6 C 95 % 10 lf 989,2 hPa 0,0 l/m 0 min 0 min 0 W/m 10,5 km/h (2 Bft) 91,49 %
11.01.2016 06:04 1,9 C 1,7 C 0,6 C 95 % 10 lf 989,1 hPa 0,0 l/m 0 min 0 min 0 W/m 10,5 km/h (2 Bft) 94,29 %
11.01.2016 06:06 1,9 C 1,7 C 0,6 C 95 % 10 lf 989,1 hPa 0,0 l/m 0 min 0 min 0 W/m 10,5 km/h (2 Bft) 93,62 %
11.01.2016 06:08 1,9 C 1,7 C 0,0 C 95 % 11 lf 989,1 hPa 0,0 l/m 0 min 0 min 0 W/m 12,6 km/h (3 Bft) 97,87 %
11.01.2016 06:10 1,9 C 1,7 C 0,0 C 95 % 11 lf 989,0 hPa 0,0 l/m 0 min 0 min 0 W/m 10,5 km/h (2 Bft) 97,83 %
11.01.2016 06:12 1,8 C 1,7 C 0,0 C 95 % 11 lf 989,0 hPa 0,0 l/m 0 min 0 min 0 W/m 10,5 km/h (2 Bft) 95,74 %
11.01.2016 06:14 1,8 C 1,7 C 0,0 C 95 % 11 lf 989,0 hPa 0,0 l/m 0 min 0 min 0 W/m 10,5 km/h (2 Bft) 95,74 %
11.01.2016 06:16 1,8 C 1,7 C 0,0 C 95 % 12 lf 988,9 hPa 0,0 l/m 0 min 0 min 0 W/m 14,6 km/h (3 Bft) 94,34 %
11.01.2016 06:18 1,8 C 1,7 C 0,0 C 95 % 12 lf 988,8 hPa 0,0 l/m 0 min 0 min 0 W/m 10,5 km/h (2 Bft) 95,74 %
11.01.2016 06:20 1,8 C 1,1 C 0,0 C 95 % 12 lf 988,8 hPa 0,0 l/m 0 min 0 min 0 W/m 8,4 km/h (2 Bft) 98,28 %
11.01.2016 06:22 1,8 C 1,1 C 0,0 C 95 % 12 lf 988,8 hPa 0,0 l/m 0 min 0 min 0 W/m 8,4 km/h (2 Bft) 100,00 %
11.01.2016 06:24 1,8 C 1,1 C 0,0 C 95 % 12 lf 988,7 hPa 0,0 l/m 0 min 0 min 0 W/m 10,5 km/h (2 Bft) 97,87 %
11.01.2016 06:26 1,7 C 1,1 C 0,0 C 95 % 12 lf 988,7 hPa 0,0 l/m 0 min 0 min 0 W/m 8,4 km/h (2 Bft) 93,62 %
11.01.2016 06:28 1,7 C 1,1 C 0,0 C 95 % 12 lf 988,8 hPa 0,0 l/m 0 min 0 min 0 W/m 12,6 km/h (3 Bft) 92,68 %
11.01.2016 06:30 1,7 C 1,1 C 0,0 C 95 % 13 lf 988,8 hPa 0,0 l/m 0 min 0 min 0 W/m 10,5 km/h (2 Bft) 97,87 %
11.01.2016 06:32 1,7 C 1,7 C 0,0 C 95 % 13 lf 988,8 hPa 0,0 l/m 0 min 0 min 0 W/m 10,5 km/h (2 Bft) 96,15 %
11.01.2016 06:34 1,7 C 1,7 C 0,0 C 95 % 13 lf 988,7 hPa 0,0 l/m 0 min 0 min 0 W/m 10,5 km/h (2 Bft) 97,87 %
11.01.2016 06:36 1,6 C 1,7 C 0,0 C 95 % 13 lf 988,7 hPa 0,0 l/m 0 min 0 min 0 W/m 14,6 km/h (3 Bft) 100,00 %
11.01.2016 06:38 1,6 C 1,7 C 0,0 C 95 % 13 lf 988,7 hPa 0,0 l/m 0 min 0 min 0 W/m 10,5 km/h (2 Bft) 97,87 %
11.01.2016 06:40 1,6 C 1,7 C 0,0 C 95 % 13 lf 988,7 hPa 0,0 l/m 0 min 0 min 0 W/m 12,6 km/h (3 Bft) 97,87 %
11.01.2016 06:42 1,6 C 1,7 C 0,0 C 95 % 14 lf 988,7 hPa 0,0 l/m 0 min 0 min 0 W/m 10,5 km/h (2 Bft) 95,74 %
11.01.2016 06:44 1,6 C 1,7 C 0,6 C 95 % 13 lf 988,7 hPa 0,0 l/m 0 min 0 min 0 W/m 10,5 km/h (2 Bft) 93,48 %
11.01.2016 06:46 1,6 C 2,2 C 0,6 C 95 % 13 lf 988,8 hPa 0,0 l/m 0 min 0 min 0 W/m 10,5 km/h (2 Bft) 97,87 %
11.01.2016 06:48 1,6 C 1,7 C 0,6 C 95 % 14 lf 988,7 hPa 0,0 l/m 0 min 0 min 0 W/m 12,6 km/h (3 Bft) 95,74 %
11.01.2016 06:50 1,6 C 1,7 C 0,6 C 95 % 14 lf 988,7 hPa 0,0 l/m 0 min 0 min 0 W/m 10,5 km/h (2 Bft) 97,87 %
11.01.2016 06:52 1,7 C 1,7 C 0,6 C 95 % 14 lf 988,7 hPa 0,0 l/m 0 min 0 min 0 W/m 10,5 km/h (2 Bft) 97,87 %
11.01.2016 06:54 1,7 C 1,7 C 0,6 C 95 % 14 lf 988,8 hPa 0,0 l/m 0 min 0 min 0 W/m 12,6 km/h (3 Bft) 97,87 %
11.01.2016 06:56 1,7 C 2,2 C 0,6 C 95 % 14 lf 988,8 hPa 0,0 l/m 0 min 0 min 0 W/m 16,7 km/h (3 Bft) 97,83 %
11.01.2016 06:58 1,7 C 2,2 C 0,6 C 95 % 14 lf 988,7 hPa 0,0 l/m 0 min 0 min 0 W/m 14,6 km/h (3 Bft) 95,74 %
11.01.2016 07:00 1,7 C 2,2 C 0,6 C 95 % 14 lf 988,7 hPa 0,0 l/m 0 min 0 min 0 W/m 16,7 km/h (3 Bft) 97,87 %
11.01.2016 07:02 1,7 C 2,2 C 0,6 C 95 % 14 lf 988,6 hPa 0,0 l/m 0 min 0 min 0 W/m 14,6 km/h (3 Bft) 97,87 %
11.01.2016 07:04 1,7 C 2,2 C 0,6 C 95 % 14 lf 988,6 hPa 0,0 l/m 0 min 0 min 0 W/m 14,6 km/h (3 Bft) 95,74 %
11.01.2016 07:06 1,7 C 2,2 C 0,6 C 95 % 14 lf 988,5 hPa 0,0 l/m 0 min 0 min 0 W/m 12,6 km/h (3 Bft) 97,87 %
11.01.2016 07:08 1,7 C 2,2 C 0,6 C 95 % 14 lf 988,5 hPa 0,0 l/m 0 min 0 min 0 W/m 12,6 km/h (3 Bft) 95,65 %
11.01.2016 07:10 1,7 C 2,2 C 0,6 C 95 % 14 lf 988,6 hPa 0,0 l/m 0 min 0 min 0 W/m 12,6 km/h (3 Bft) 97,87 %
11.01.2016 07:12 1,7 C 2,2 C 0,6 C 95 % 14 lf 988,4 hPa 0,0 l/m 0 min 0 min 0 W/m 12,6 km/h (3 Bft) 97,87 %
11.01.2016 07:14 1,7 C 2,2 C 0,6 C 95 % 14 lf 988,5 hPa 0,0 l/m 0 min 0 min 0 W/m 14,6 km/h (3 Bft) 95,74 %
11.01.2016 07:16 1,8 C 2,2 C 0,6 C 96 % 14 lf 988,5 hPa 0,0 l/m 0 min 0 min 0 W/m 14,6 km/h (3 Bft) 93,88 %
11.01.2016 07:18 1,8 C 2,2 C 0,6 C 96 % 14 lf 988,4 hPa 0,0 l/m 0 min 0 min 0 W/m 18,8 km/h (3 Bft) 93,48 %
11.01.2016 07:20 1,8 C 2,2 C 0,6 C 96 % 14 lf 988,4 hPa 0,0 l/m 0 min 0 min 0 W/m 16,7 km/h (3 Bft) 93,62 %
11.01.2016 07:22 1,9 C 2,2 C 0,6 C 96 % 14 lf 988,3 hPa 0,0 l/m 0 min 0 min 0 W/m 14,6 km/h (3 Bft) 97,87 %
11.01.2016 07:24 1,9 C 2,2 C 1,1 C 96 % 14 lf 988,2 hPa 0,0 l/m 0 min 0 min 0 W/m 16,7 km/h (3 Bft) 97,87 %
11.01.2016 07:26 1,9 C 2,2 C 1,1 C 96 % 14 lf 988,2 hPa 0,0 l/m 0 min 0 min 0 W/m 12,6 km/h (3 Bft) 97,87 %
11.01.2016 07:28 1,9 C 2,2 C 1,1 C 96 % 13 lf 988,3 hPa 0,0 l/m 0 min 0 min 0 W/m 18,8 km/h (3 Bft) 91,49 %
11.01.2016 07:30 2,0 C 2,8 C 1,1 C 96 % 13 lf 988,2 hPa 0,0 l/m 0 min 0 min 0 W/m 16,7 km/h (3 Bft) 97,83 %
11.01.2016 07:32 2,0 C 2,8 C 1,1 C 96 % 14 lf 988,2 hPa 0,0 l/m 0 min 0 min 0 W/m 14,6 km/h (3 Bft) 93,62 %
11.01.2016 07:34 2,1 C 2,8 C 1,1 C 96 % 13 lf 988,2 hPa 0,0 l/m 0 min 0 min 0 W/m 14,6 km/h (3 Bft) 97,87 %
11.01.2016 07:36 2,1 C 2,2 C 1,1 C 96 % 13 lf 988,2 hPa 0,0 l/m 0 min 0 min 0 W/m 14,6 km/h (3 Bft) 97,87 %
11.01.2016 07:38 2,1 C 2,2 C 1,1 C 96 % 13 lf 988,2 hPa 0,0 l/m 0 min 0 min 0 W/m 16,7 km/h (3 Bft) 97,87 %
11.01.2016 07:40 2,1 C 2,8 C 1,1 C 96 % 13 lf 988,2 hPa 0,0 l/m 0 min 0 min 0 W/m 16,7 km/h (3 Bft) 97,87 %
11.01.2016 07:42 2,1 C 2,8 C 1,1 C 96 % 13 lf 988,2 hPa 0,0 l/m 0 min 0 min 0 W/m 16,7 km/h (3 Bft) 95,65 %
11.01.2016 07:44 2,1 C 2,2 C 1,1 C 96 % 13 lf 988,3 hPa 0,0 l/m 0 min 0 min 0 W/m 18,8 km/h (3 Bft) 97,87 %
11.01.2016 07:46 2,1 C 2,2 C 1,1 C 96 % 13 lf 988,2 hPa 0,0 l/m 0 min 0 min 0 W/m 12,6 km/h (3 Bft) 95,74 %
11.01.2016 07:48 2,1 C 2,2 C 1,1 C 96 % 12 lf 988,3 hPa 0,0 l/m 0 min 0 min 0 W/m 14,6 km/h (3 Bft) 95,74 %
11.01.2016 07:50 2,2 C 2,8 C 1,1 C 96 % 12 lf 988,3 hPa 0,0 l/m 0 min 0 min 0 W/m 14,6 km/h (3 Bft) 95,74 %
11.01.2016 07:52 2,2 C 2,8 C 1,1 C 96 % 12 lf 988,4 hPa 0,0 l/m 0 min 0 min 0 W/m 14,6 km/h (3 Bft) 97,87 %
11.01.2016 07:54 2,2 C 2,8 C 1,1 C 96 % 12 lf 988,2 hPa 0,0 l/m 0 min 0 min 0 W/m 14,6 km/h (3 Bft) 93,48 %
11.01.2016 07:56 2,2 C 2,2 C 1,1 C 96 % 11 lf 988,2 hPa 0,0 l/m 0 min 0 min 0 W/m 14,6 km/h (3 Bft) 93,62 %
11.01.2016 07:58 2,2 C 2,2 C 1,1 C 96 % 11 lf 988,2 hPa 0,0 l/m 0 min 0 min 0 W/m 14,6 km/h (3 Bft) 93,62 %
11.01.2016 08:00 2,2 C 2,8 C 1,1 C 96 % 11 lf 988,2 hPa 0,0 l/m 0 min 0 min 0 W/m 14,6 km/h (3 Bft) 95,74 %
11.01.2016 08:02 2,2 C 2,8 C 1,1 C 96 % 11 lf 988,2 hPa 0,0 l/m 0 min 0 min 0 W/m 14,6 km/h (3 Bft) 95,74 %
11.01.2016 08:04 2,2 C 2,8 C 1,1 C 96 % 10 lf 988,2 hPa 0,0 l/m 0 min 0 min 0 W/m 14,6 km/h (3 Bft) 93,48 %
11.01.2016 08:06 2,2 C 2,8 C 1,1 C 96 % 10 lf 988,1 hPa 0,0 l/m 0 min 0 min 0 W/m 14,6 km/h (3 Bft) 95,74 %
11.01.2016 08:08 2,2 C 2,8 C 1,1 C 96 % 9 lf 988,0 hPa 0,0 l/m 0 min 0 min 0 W/m 14,6 km/h (3 Bft) 91,49 %
11.01.2016 08:10 2,2 C 2,8 C 1,1 C 96 % 9 lf 988,1 hPa 0,0 l/m 0 min 0 min 0 W/m 12,6 km/h (3 Bft) 95,74 %
11.01.2016 08:12 2,3 C 2,8 C 1,1 C 96 % 9 lf 988,0 hPa 0,0 l/m 0 min 0 min 0 W/m 16,7 km/h (3 Bft) 89,36 %
11.01.2016 08:14 2,3 C 2,8 C 1,1 C 96 % 8 lf 988,0 hPa 0,0 l/m 0 min 0 min 0 W/m 18,8 km/h (3 Bft) 93,62 %
11.01.2016 08:16 2,3 C 2,8 C 1,1 C 96 % 7 lf 987,9 hPa 0,0 l/m 0 min 0 min 0 W/m 18,8 km/h (3 Bft) 93,48 %
11.01.2016 08:18 2,3 C 2,8 C 1,1 C 96 % 7 lf 988,0 hPa 0,0 l/m 0 min 0 min 0 W/m 14,6 km/h (3 Bft) 91,49 %
11.01.2016 08:20 2,3 C 2,8 C 1,1 C 96 % 6 lf 987,9 hPa 0,0 l/m 0 min 0 min 0 W/m 23,0 km/h (4 Bft) 93,62 %
11.01.2016 08:22 2,3 C 2,8 C 1,1 C 96 % 5 lf 987,9 hPa 0,0 l/m 0 min 0 min 0 W/m 14,6 km/h (3 Bft) 93,62 %
11.01.2016 08:24 2,3 C 2,8 C 1,1 C 96 % 5 lf 987,9 hPa 0,0 l/m 0 min 0 min 0 W/m 16,7 km/h (3 Bft) 95,74 %
11.01.2016 08:26 2,4 C 2,8 C 1,1 C 96 % 4 lf 987,8 hPa 0,0 l/m 0 min 0 min 0 W/m 20,9 km/h (4 Bft) 93,62 %
11.01.2016 08:28 2,4 C 2,8 C 1,1 C 96 % 4 lf 987,9 hPa 0,0 l/m 0 min 0 min 0 W/m 20,9 km/h (4 Bft) 93,48 %
11.01.2016 08:30 2,4 C 2,8 C 1,1 C 96 % 4 lf 987,8 hPa 0,0 l/m 0 min 0 min 0 W/m 18,8 km/h (3 Bft) 93,62 %
11.01.2016 08:32 2,4 C 2,8 C 1,1 C 96 % 4 lf 987,8 hPa 0,0 l/m 0 min 0 min 0 W/m 20,9 km/h (4 Bft) 95,74 %
11.01.2016 08:34 2,4 C 2,8 C 1,1 C 96 % 4 lf 987,8 hPa 0,0 l/m 0 min 0 min 0 W/m 16,7 km/h (3 Bft) 95,74 %
11.01.2016 08:36 2,4 C 2,8 C 1,1 C 96 % 4 lf 987,9 hPa 0,0 l/m 0 min 0 min 3 W/m 14,6 km/h (3 Bft) 97,87 %
11.01.2016 08:38 2,4 C 2,8 C 1,1 C 96 % 3 lf 987,8 hPa 0,0 l/m 0 min 0 min 5 W/m 16,7 km/h (3 Bft) 95,74 %
11.01.2016 08:40 2,4 C 2,8 C 1,1 C 96 % 3 lf 987,7 hPa 0,0 l/m 0 min 0 min 5 W/m 20,9 km/h (4 Bft) 97,83 %
11.01.2016 08:42 2,4 C 2,8 C 1,1 C 96 % 3 lf 987,7 hPa 0,0 l/m 0 min 0 min 6 W/m 14,6 km/h (3 Bft) 93,62 %
11.01.2016 08:44 2,4 C 2,8 C 1,1 C 96 % 3 lf 987,7 hPa 0,0 l/m 0 min 0 min 7 W/m 18,8 km/h (3 Bft) 97,87 %
11.01.2016 08:46 2,4 C 2,8 C 1,1 C 96 % 3 lf 987,7 hPa 0,0 l/m 0 min 0 min 7 W/m 14,6 km/h (3 Bft) 95,74 %
11.01.2016 08:48 2,4 C 2,8 C 1,1 C 96 % 3 lf 987,7 hPa 0,0 l/m 0 min 0 min 9 W/m 16,7 km/h (3 Bft) 95,74 %
11.01.2016 08:50 2,4 C 2,8 C 1,1 C 96 % 3 lf 987,7 hPa 0,0 l/m 0 min 0 min 10 W/m 20,9 km/h (4 Bft) 97,87 %
11.01.2016 08:52 2,5 C 2,8 C 1,1 C 96 % 3 lf 987,7 hPa 0,0 l/m 0 min 0 min 11 W/m 16,7 km/h (3 Bft) 97,83 %
11.01.2016 08:54 2,5 C 2,8 C 1,1 C 96 % 3 lf 987,7 hPa 0,0 l/m 0 min 0 min 12 W/m 14,6 km/h (3 Bft) 97,87 %
11.01.2016 08:56 2,5 C 2,8 C 1,1 C 96 % 2 lf 987,7 hPa 0,0 l/m 0 min 0 min 12 W/m 14,6 km/h (3 Bft) 95,74 %
11.01.2016 08:58 2,5 C 2,8 C 1,1 C 96 % 2 lf 987,7 hPa 0,0 l/m 0 min 0 min 14 W/m 14,6 km/h (3 Bft) 95,74 %
11.01.2016 09:00 2,6 C 2,8 C 1,7 C 96 % 2 lf 987,7 hPa 0,0 l/m 0 min 0 min 14 W/m 16,7 km/h (3 Bft) 97,87 %
11.01.2016 09:02 2,6 C 2,8 C 1,7 C 96 % 2 lf 987,7 hPa 0,0 l/m 0 min 0 min 14 W/m 10,5 km/h (2 Bft) 97,87 %
11.01.2016 09:04 2,6 C 2,8 C 1,1 C 96 % 2 lf 987,6 hPa 0,0 l/m 0 min 0 min 16 W/m 16,7 km/h (3 Bft) 97,83 %
11.01.2016 09:06 2,6 C 2,8 C 1,7 C 96 % 2 lf 987,7 hPa 0,0 l/m 0 min 0 min 16 W/m 16,7 km/h (3 Bft) 100,00 %
11.01.2016 09:08 2,6 C 2,8 C 1,7 C 96 % 1 lf 987,7 hPa 0,0 l/m 0 min 0 min 16 W/m 23,0 km/h (4 Bft) 95,74 %
11.01.2016 09:10 2,6 C 2,8 C 1,7 C 96 % 1 lf 987,7 hPa 0,0 l/m 0 min 0 min 18 W/m 10,5 km/h (2 Bft) 93,62 %
11.01.2016 09:12 2,6 C 2,8 C 1,7 C 96 % 1 lf 987,7 hPa 0,0 l/m 0 min 0 min 18 W/m 18,8 km/h (3 Bft) 95,74 %
11.01.2016 09:14 2,6 C 2,8 C 1,7 C 96 % 1 lf 987,7 hPa 0,0 l/m 0 min 0 min 20 W/m 20,9 km/h (4 Bft) 97,87 %
11.01.2016 09:16 2,6 C 2,8 C 1,7 C 96 % 1 lf 987,6 hPa 0,0 l/m 0 min 0 min 21 W/m 18,8 km/h (3 Bft) 95,83 %
11.01.2016 09:18 2,6 C 3,3 C 1,7 C 96 % 1 lf 987,7 hPa 0,0 l/m 0 min 0 min 24 W/m 12,6 km/h (3 Bft) 93,62 %
11.01.2016 09:20 2,6 C 3,3 C 1,7 C 96 % 1 lf 987,7 hPa 0,0 l/m 0 min 0 min 25 W/m 16,7 km/h (3 Bft) 95,74 %
11.01.2016 09:22 2,7 C 3,3 C 1,7 C 96 % 1 lf 987,6 hPa 0,0 l/m 0 min 0 min 28 W/m 16,7 km/h (3 Bft) 97,87 %
11.01.2016 09:24 2,7 C 3,3 C 1,7 C 96 % 1 lf 987,6 hPa 0,0 l/m 0 min 0 min 31 W/m 16,7 km/h (3 Bft) 95,74 %
11.01.2016 09:26 2,7 C 3,3 C 1,7 C 96 % 1 lf 987,5 hPa 0,0 l/m 0 min 0 min 32 W/m 14,6 km/h (3 Bft) 93,48 %
11.01.2016 09:28 2,7 C 3,3 C 1,7 C 96 % 1 lf 987,6 hPa 0,0 l/m 0 min 0 min 34 W/m 14,6 km/h (3 Bft) 97,87 %
11.01.2016 09:30 2,7 C 3,3 C 1,7 C 96 % 1 lf 987,5 hPa 0,0 l/m 0 min 0 min 36 W/m 16,7 km/h (3 Bft) 97,87 %
11.01.2016 09:32 2,7 C 3,3 C 1,7 C 96 % 1 lf 987,5 hPa 0,0 l/m 0 min 0 min 38 W/m 14,6 km/h (3 Bft) 97,87 %
11.01.2016 09:34 2,7 C 3,3 C 1,7 C 96 % 1 lf 987,5 hPa 0,0 l/m 0 min 0 min 39 W/m 12,6 km/h (3 Bft) 97,87 %
11.01.2016 09:36 2,7 C 3,3 C 1,7 C 96 % 1 lf 987,4 hPa 0,0 l/m 0 min 0 min 40 W/m 14,6 km/h (3 Bft) 95,74 %
11.01.2016 09:38 2,8 C 3,3 C 1,7 C 96 % 1 lf 987,4 hPa 0,0 l/m 0 min 0 min 42 W/m 12,6 km/h (3 Bft) 95,65 %
11.01.2016 09:40 2,8 C 3,3 C 1,7 C 96 % 1 lf 987,4 hPa 0,0 l/m 0 min 0 min 43 W/m 16,7 km/h (3 Bft) 95,74 %
11.01.2016 09:42 2,8 C 3,9 C 2,2 C 96 % 0 lf 987,4 hPa 0,0 l/m 0 min 0 min 46 W/m 14,6 km/h (3 Bft) 95,74 %
11.01.2016 09:44 2,8 C 3,9 C 2,2 C 96 % 0 lf 987,3 hPa 0,0 l/m 0 min 0 min 48 W/m 14,6 km/h (3 Bft) 95,74 %
11.01.2016 09:46 2,9 C 3,9 C 2,2 C 96 % 0 lf 987,3 hPa 0,0 l/m 0 min 0 min 48 W/m 10,5 km/h (2 Bft) 95,74 %
11.01.2016 09:48 2,9 C 3,9 C 2,2 C 96 % 0 lf 987,3 hPa 0,0 l/m 0 min 0 min 44 W/m 14,6 km/h (3 Bft) 93,62 %
11.01.2016 09:50 2,9 C 3,9 C 2,2 C 96 % 0 lf 987,3 hPa 0,0 l/m 0 min 0 min 44 W/m 16,7 km/h (3 Bft) 95,65 %
11.01.2016 09:52 2,9 C 3,9 C 2,2 C 96 % 0 lf 987,2 hPa 0,0 l/m 0 min 0 min 44 W/m 14,6 km/h (3 Bft) 89,36 %
11.01.2016 09:54 3,0 C 3,9 C 2,2 C 96 % 0 lf 987,2 hPa 0,0 l/m 0 min 0 min 42 W/m 14,6 km/h (3 Bft) 95,74 %
11.01.2016 09:56 3,1 C 3,9 C 2,2 C 96 % 0 lf 987,3 hPa 0,0 l/m 0 min 0 min 41 W/m 16,7 km/h (3 Bft) 93,62 %
11.01.2016 09:58 3,1 C 3,9 C 2,2 C 96 % 0 lf 987,3 hPa 0,0 l/m 0 min 0 min 40 W/m 14,6 km/h (3 Bft) 95,74 %
11.01.2016 10:00 3,1 C 3,9 C 2,2 C 97 % 0 lf 987,3 hPa 0,0 l/m 0 min 0 min 40 W/m 14,6 km/h (3 Bft) 97,87 %
11.01.2016 10:02 3,1 C 3,9 C 2,2 C 97 % 0 lf 987,3 hPa 0,0 l/m 0 min 0 min 40 W/m 20,9 km/h (4 Bft) 95,65 %
11.01.2016 10:04 3,2 C 3,9 C 2,2 C 97 % 0 lf 987,3 hPa 0,0 l/m 0 min 0 min 38 W/m 14,6 km/h (3 Bft) 95,74 %
11.01.2016 10:06 3,2 C 3,9 C 2,2 C 96 % 0 lf 987,3 hPa 0,0 l/m 0 min 0 min 34 W/m 18,8 km/h (3 Bft) 93,62 %
11.01.2016 10:08 3,2 C 3,9 C 2,8 C 96 % 0 lf 987,3 hPa 0,0 l/m 0 min 0 min 29 W/m 14,6 km/h (3 Bft) 93,62 %
11.01.2016 10:10 3,3 C 3,9 C 2,8 C 96 % 0 lf 987,3 hPa 0,0 l/m 0 min 0 min 25 W/m 12,6 km/h (3 Bft) 97,87 %
11.01.2016 10:12 3,3 C 3,9 C 2,8 C 96 % 0 lf 987,4 hPa 0,0 l/m 0 min 0 min 20 W/m 16,7 km/h (3 Bft) 97,83 %
11.01.2016 10:14 3,3 C 4,4 C 2,8 C 97 % 0 lf 987,3 hPa 0,0 l/m 0 min 0 min 16 W/m 18,8 km/h (3 Bft) 97,87 %
11.01.2016 10:16 3,4 C 3,9 C 2,8 C 97 % 0 lf 987,3 hPa 0,0 l/m 0 min 0 min 13 W/m 16,7 km/h (3 Bft) 97,87 %
11.01.2016 10:18 3,4 C 3,9 C 2,8 C 97 % 0 lf 987,3 hPa 0,0 l/m 0 min 2 min 12 W/m 14,6 km/h (3 Bft) 97,87 %
11.01.2016 10:20 3,5 C 3,9 C 2,8 C 97 % 0 lf 987,3 hPa 0,0 l/m 0 min 2 min 13 W/m 14,6 km/h (3 Bft) 100,00 %
11.01.2016 10:22 3,6 C 3,9 C 2,8 C 97 % 0 lf 987,3 hPa 0,0 l/m 0 min 2 min 15 W/m 16,7 km/h (3 Bft) 100,00 %
11.01.2016 10:24 3,6 C 3,9 C 2,8 C 97 % 0 lf 987,3 hPa 0,0 l/m 0 min 2 min 18 W/m 14,6 km/h (3 Bft) 97,87 %
11.01.2016 10:26 3,6 C 3,9 C 2,8 C 97 % 0 lf 987,3 hPa 0,0 l/m 0 min 2 min 21 W/m 16,7 km/h (3 Bft) 100,00 %
11.01.2016 10:28 3,7 C 4,4 C 2,8 C 97 % 0 lf 987,3 hPa 0,0 l/m 0 min 0 min 26 W/m 16,7 km/h (3 Bft) 100,00 %
11.01.2016 10:30 3,7 C 4,4 C 2,8 C 97 % 0 lf 987,2 hPa 0,0 l/m 0 min 2 min 32 W/m 18,8 km/h (3 Bft) 100,00 %
11.01.2016 10:32 3,7 C 4,4 C 2,8 C 97 % 0 lf 987,2 hPa 0,0 l/m 0 min 2 min 39 W/m 25,1 km/h (4 Bft) 100,00 %
11.01.2016 10:34 3,8 C 4,4 C 2,8 C 97 % 0 lf 987,2 hPa 0,0 l/m 0 min 2 min 40 W/m 23,0 km/h (4 Bft) 97,87 %
11.01.2016 10:36 3,8 C 4,4 C 2,8 C 97 % 1 lf 987,2 hPa 0,0 l/m 0 min 2 min 42 W/m 12,6 km/h (3 Bft) 97,83 %
11.01.2016 10:38 3,8 C 4,4 C 2,8 C 97 % 1 lf 987,1 hPa 0,0 l/m 0 min 2 min 55 W/m 14,6 km/h (3 Bft) 100,00 %
11.01.2016 10:40 3,9 C 4,4 C 3,3 C 97 % 1 lf 987,1 hPa 0,2 l/m 0 min 2 min 61 W/m 18,8 km/h (3 Bft) 97,87 %
11.01.2016 10:42 3,9 C 4,4 C 3,3 C 97 % 1 lf 987,1 hPa 0,0 l/m 0 min 0 min 62 W/m 18,8 km/h (3 Bft) 100,00 %
11.01.2016 10:44 4,0 C 4,4 C 3,3 C 97 % 0 lf 987,1 hPa 0,0 l/m 0 min 0 min 63 W/m 16,7 km/h (3 Bft) 95,74 %
11.01.2016 10:46 4,0 C 4,4 C 3,3 C 97 % 0 lf 987,1 hPa 0,0 l/m 0 min 0 min 61 W/m 16,7 km/h (3 Bft) 97,87 %
11.01.2016 10:48 4,1 C 4,4 C 3,3 C 97 % 0 lf 987,0 hPa 0,0 l/m 0 min 0 min 59 W/m 14,6 km/h (3 Bft) 100,00 %
11.01.2016 10:50 4,1 C 4,4 C 3,3 C 97 % 0 lf 987,1 hPa 0,0 l/m 0 min 0 min 56 W/m 20,9 km/h (4 Bft) 100,00 %
11.01.2016 10:52 4,1 C 4,4 C 3,3 C 97 % 0 lf 987,0 hPa 0,0 l/m 0 min 0 min 53 W/m 16,7 km/h (3 Bft) 97,87 %
11.01.2016 10:54 4,2 C 4,4 C 3,3 C 97 % 0 lf 987,1 hPa 0,0 l/m 0 min 0 min 48 W/m 12,6 km/h (3 Bft) 100,00 %
11.01.2016 10:56 4,2 C 4,4 C 3,3 C 97 % 0 lf 987,1 hPa 0,0 l/m 0 min 0 min 41 W/m 18,8 km/h (3 Bft) 100,00 %
11.01.2016 10:58 4,2 C 5,0 C 3,3 C 97 % 0 lf 987,1 hPa 0,0 l/m 0 min 0 min 32 W/m 20,9 km/h (4 Bft) 100,00 %
11.01.2016 11:00 4,2 C 4,4 C 3,3 C 97 % 0 lf 987,1 hPa 0,0 l/m 0 min 0 min 29 W/m 14,6 km/h (3 Bft) 97,83 %
11.01.2016 11:02 4,3 C 5,0 C 3,3 C 97 % 0 lf 987,1 hPa 0,0 l/m 0 min 0 min 25 W/m 20,9 km/h (4 Bft) 100,00 %
11.01.2016 11:04 4,3 C 5,0 C 3,3 C 97 % 0 lf 987,1 hPa 0,0 l/m 0 min 0 min 23 W/m 16,7 km/h (3 Bft) 97,87 %
11.01.2016 11:06 4,3 C 5,0 C 3,3 C 97 % 0 lf 987,1 hPa 0,0 l/m 0 min 0 min 19 W/m 20,9 km/h (4 Bft) 100,00 %
11.01.2016 11:08 4,4 C 5,0 C 3,3 C 97 % 0 lf 987,1 hPa 0,0 l/m 0 min 0 min 18 W/m 18,8 km/h (3 Bft) 97,87 %
11.01.2016 11:10 4,4 C 5,0 C 3,3 C 97 % 0 lf 987,2 hPa 0,0 l/m 0 min 2 min 16 W/m 14,6 km/h (3 Bft) 93,62 %
11.01.2016 11:12 4,4 C 5,0 C 3,3 C 97 % 0 lf 987,2 hPa 0,0 l/m 0 min 2 min 14 W/m 18,8 km/h (3 Bft) 95,65 %
11.01.2016 11:14 4,4 C 5,0 C 3,3 C 97 % 0 lf 987,1 hPa 0,0 l/m 0 min 2 min 15 W/m 18,8 km/h (3 Bft) 97,87 %
11.01.2016 11:16 4,5 C 5,0 C 3,3 C 97 % 0 lf 987,1 hPa 0,0 l/m 0 min 2 min 15 W/m 14,6 km/h (3 Bft) 95,74 %
11.01.2016 11:18 4,5 C 5,0 C 3,3 C 97 % 0 lf 987,1 hPa 0,0 l/m 0 min 2 min 13 W/m 12,6 km/h (3 Bft) 95,74 %
11.01.2016 11:20 4,6 C 5,0 C 3,3 C 97 % 0 lf 987,1 hPa 0,0 l/m 0 min 2 min 15 W/m 18,8 km/h (3 Bft) 97,87 %
11.01.2016 11:22 4,6 C 5,0 C 3,3 C 97 % 0 lf 987,1 hPa 0,0 l/m 0 min 2 min 15 W/m 14,6 km/h (3 Bft) 93,48 %
11.01.2016 11:24 4,6 C 5,0 C 3,3 C 97 % 0 lf 987,0 hPa 0,0 l/m 0 min 2 min 14 W/m 20,9 km/h (4 Bft) 95,74 %
11.01.2016 11:26 4,7 C 5,0 C 3,3 C 97 % 4 lf 987,1 hPa 0,0 l/m 0 min 2 min 14 W/m 16,7 km/h (3 Bft) 89,36 %
11.01.2016 11:28 4,7 C 5,0 C 3,3 C 97 % 4 lf 987,1 hPa 0,2 l/m 0 min 2 min 12 W/m 20,9 km/h (4 Bft) 95,74 %
11.01.2016 11:30 4,8 C 5,0 C 3,3 C 97 % 6 lf 987,0 hPa 0,2 l/m 0 min 2 min 12 W/m 25,1 km/h (4 Bft) 93,62 %
11.01.2016 11:32 4,8 C 5,0 C 3,3 C 97 % 7 lf 987,0 hPa 0,2 l/m 0 min 2 min 14 W/m 23,0 km/h (4 Bft) 87,23 %
11.01.2016 11:34 4,9 C 5,0 C 3,3 C 97 % 9 lf 987,0 hPa 0,0 l/m 0 min 2 min 15 W/m 20,9 km/h (4 Bft) 86,96 %
11.01.2016 11:36 4,9 C 5,0 C 3,3 C 97 % 15 lf 986,9 hPa 0,2 l/m 0 min 2 min 17 W/m 16,7 km/h (3 Bft) 93,62 %
11.01.2016 11:38 4,9 C 5,0 C 3,3 C 97 % 15 lf 986,8 hPa 0,2 l/m 0 min 2 min 19 W/m 14,6 km/h (3 Bft) 91,49 %
11.01.2016 11:40 4,9 C 5,0 C 3,3 C 97 % 15 lf 986,7 hPa 0,2 l/m 0 min 2 min 21 W/m 18,8 km/h (3 Bft) 93,62 %
11.01.2016 11:42 4,9 C 5,0 C 3,3 C 97 % 15 lf 986,7 hPa 0,0 l/m 0 min 2 min 19 W/m 18,8 km/h (3 Bft) 91,49 %
11.01.2016 11:44 4,9 C 5,0 C 3,3 C 97 % 15 lf 986,6 hPa 0,2 l/m 0 min 2 min 20 W/m 25,1 km/h (4 Bft) 89,36 %
11.01.2016 11:46 4,9 C 5,0 C 3,3 C 97 % 15 lf 986,6 hPa 0,2 l/m 0 min 2 min 21 W/m 18,8 km/h (3 Bft) 89,13 %
11.01.2016 11:48 5,0 C 5,0 C 3,3 C 97 % 15 lf 986,5 hPa 0,0 l/m 0 min 2 min 21 W/m 18,8 km/h (3 Bft) 93,62 %
11.01.2016 11:50 5,0 C 5,0 C 3,3 C 97 % 15 lf 986,5 hPa 0,0 l/m 0 min 2 min 21 W/m 12,6 km/h (3 Bft) 93,62 %
11.01.2016 11:52 5,0 C 5,0 C 3,9 C 97 % 15 lf 986,3 hPa 0,2 l/m 0 min 2 min 21 W/m 23,0 km/h (4 Bft) 89,36 %
11.01.2016 11:54 5,0 C 5,0 C 3,9 C 97 % 15 lf 986,2 hPa 0,0 l/m 0 min 2 min 21 W/m 20,9 km/h (4 Bft) 91,49 %
11.01.2016 11:56 5,0 C 5,0 C 3,9 C 97 % 15 lf 986,2 hPa 0,0 l/m 0 min 2 min 23 W/m 23,0 km/h (4 Bft) 87,23 %
11.01.2016 11:58 5,0 C 5,0 C 3,9 C 97 % 15 lf 986,0 hPa 0,2 l/m 0 min 2 min 23 W/m 20,9 km/h (4 Bft) 89,13 %
11.01.2016 12:00 5,0 C 5,0 C 3,9 C 97 % 15 lf 985,9 hPa 0,0 l/m 0 min 2 min 23 W/m 18,8 km/h (3 Bft) 91,49 %
11.01.2016 12:02 5,0 C 5,0 C 3,9 C 97 % 15 lf 985,8 hPa 0,0 l/m 0 min 2 min 23 W/m 18,8 km/h (3 Bft) 89,36 %
11.01.2016 12:04 5,0 C 5,0 C 3,9 C 97 % 15 lf 985,9 hPa 0,0 l/m 0 min 2 min 23 W/m 20,9 km/h (4 Bft) 95,83 %
11.01.2016 12:06 5,1 C 5,0 C 3,9 C 97 % 15 lf 985,9 hPa 0,0 l/m 0 min 2 min 23 W/m 18,8 km/h (3 Bft) 93,62 %
11.01.2016 12:08 5,1 C 5,0 C 3,9 C 97 % 15 lf 985,9 hPa 0,2 l/m 0 min 2 min 22 W/m 20,9 km/h (4 Bft) 95,65 %
11.01.2016 12:10 5,1 C 5,0 C 3,9 C 97 % 15 lf 985,9 hPa 0,0 l/m 0 min 2 min 22 W/m 18,8 km/h (3 Bft) 89,36 %
11.01.2016 12:12 5,1 C 5,0 C 3,9 C 97 % 15 lf 985,8 hPa 0,0 l/m 0 min 2 min 25 W/m 27,2 km/h (4 Bft) 95,74 %
11.01.2016 12:14 5,1 C 5,0 C 3,9 C 97 % 15 lf 985,8 hPa 0,2 l/m 0 min 2 min 23 W/m 23,0 km/h (4 Bft) 91,49 %
11.01.2016 12:16 5,1 C 5,0 C 3,9 C 97 % 15 lf 985,7 hPa 0,2 l/m 0 min 2 min 23 W/m 23,0 km/h (4 Bft) 93,62 %
11.01.2016 12:18 5,1 C 5,0 C 3,9 C 97 % 15 lf 985,7 hPa 0,0 l/m 0 min 2 min 23 W/m 18,8 km/h (3 Bft) 93,62 %
11.01.2016 12:20 5,1 C 5,0 C 3,9 C 97 % 15 lf 985,7 hPa 0,2 l/m 0 min 2 min 24 W/m 16,7 km/h (3 Bft) 95,65 %
11.01.2016 12:22 5,1 C 5,0 C 3,9 C 97 % 15 lf 985,7 hPa 0,0 l/m 0 min 2 min 25 W/m 18,8 km/h (3 Bft) 95,74 %
11.01.2016 12:24 5,1 C 5,0 C 3,9 C 97 % 15 lf 985,7 hPa 0,0 l/m 0 min 2 min 25 W/m 20,9 km/h (4 Bft) 91,49 %
11.01.2016 12:26 5,1 C 5,0 C 3,9 C 97 % 15 lf 985,6 hPa 0,2 l/m 0 min 2 min 23 W/m 18,8 km/h (3 Bft) 95,74 %
11.01.2016 12:28 5,1 C 5,0 C 3,9 C 97 % 15 lf 985,6 hPa 0,0 l/m 0 min 2 min 21 W/m 20,9 km/h (4 Bft) 97,87 %
11.01.2016 12:30 5,1 C 5,0 C 3,9 C 97 % 15 lf 985,5 hPa 0,2 l/m 0 min 2 min 21 W/m 18,8 km/h (3 Bft) 95,74 %
11.01.2016 12:32 5,1 C 5,0 C 3,9 C 97 % 15 lf 985,5 hPa 0,0 l/m 0 min 2 min 21 W/m 20,9 km/h (4 Bft) 97,83 %
11.01.2016 12:34 5,2 C 5,0 C 3,9 C 97 % 15 lf 985,4 hPa 0,0 l/m 0 min 2 min 21 W/m 27,2 km/h (4 Bft) 97,87 %
11.01.2016 12:36 5,2 C 5,0 C 3,9 C 97 % 15 lf 985,3 hPa 0,2 l/m 0 min 2 min 24 W/m 27,2 km/h (4 Bft) 93,62 %
11.01.2016 12:38 5,2 C 5,0 C 3,9 C 97 % 15 lf 985,3 hPa 0,0 l/m 0 min 2 min 34 W/m 20,9 km/h (4 Bft) 100,00 %
11.01.2016 12:40 5,2 C 5,0 C 3,9 C 97 % 15 lf 985,3 hPa 0,0 l/m 0 min 2 min 49 W/m 23,0 km/h (4 Bft) 95,74 %
11.01.2016 12:42 5,2 C 5,0 C 3,9 C 97 % 15 lf 985,3 hPa 0,2 l/m 0 min 2 min 55 W/m 18,8 km/h (3 Bft) 97,87 %
11.01.2016 12:44 5,2 C 5,6 C 3,9 C 97 % 15 lf 985,3 hPa 0,0 l/m 0 min 2 min 63 W/m 18,8 km/h (3 Bft) 100,00 %
11.01.2016 12:46 5,2 C 5,6 C 3,9 C 97 % 15 lf 985,3 hPa 0,2 l/m 0 min 2 min 78 W/m 23,0 km/h (4 Bft) 97,87 %
11.01.2016 12:48 5,3 C 5,6 C 4,4 C 97 % 15 lf 985,2 hPa 0,0 l/m 0 min 2 min 89 W/m 16,7 km/h (3 Bft) 95,74 %
11.01.2016 12:50 5,3 C 5,6 C 4,4 C 97 % 15 lf 985,2 hPa 0,0 l/m 0 min 2 min 95 W/m 18,8 km/h (3 Bft) 97,87 %
11.01.2016 12:52 5,3 C 5,6 C 4,4 C 97 % 15 lf 985,1 hPa 0,0 l/m 0 min 2 min 104 W/m 33,5 km/h (5 Bft) 97,87 %
11.01.2016 12:54 5,3 C 5,6 C 4,4 C 97 % 15 lf 985,2 hPa 0,0 l/m 0 min 2 min 103 W/m 20,9 km/h (4 Bft) 100,00 %
11.01.2016 12:56 5,4 C 5,6 C 4,4 C 97 % 15 lf 985,1 hPa 0,2 l/m 0 min 2 min 92 W/m 29,3 km/h (5 Bft) 97,83 %
11.01.2016 12:58 5,4 C 5,6 C 4,4 C 97 % 15 lf 985,1 hPa 0,0 l/m 0 min 2 min 71 W/m 29,3 km/h (5 Bft) 100,00 %
11.01.2016 13:00 5,4 C 5,6 C 4,4 C 97 % 15 lf 985,0 hPa 0,0 l/m 0 min 0 min 61 W/m 27,2 km/h (4 Bft) 95,74 %
11.01.2016 13:02 5,4 C 5,6 C 4,4 C 97 % 15 lf 985,0 hPa 0,0 l/m 0 min 0 min 53 W/m 25,1 km/h (4 Bft) 100,00 %
11.01.2016 13:04 5,4 C 5,6 C 4,4 C 97 % 15 lf 985,0 hPa 0,0 l/m 0 min 0 min 54 W/m 25,1 km/h (4 Bft) 100,00 %
11.01.2016 13:06 5,4 C 5,6 C 4,4 C 97 % 15 lf 984,9 hPa 0,0 l/m 0 min 0 min 54 W/m 25,1 km/h (4 Bft) 100,00 %
11.01.2016 13:08 5,4 C 5,6 C 4,4 C 97 % 15 lf 984,8 hPa 0,0 l/m 0 min 0 min 61 W/m 18,8 km/h (3 Bft) 100,00 %
11.01.2016 13:10 5,4 C 5,6 C 4,4 C 97 % 15 lf 984,8 hPa 0,0 l/m 0 min 0 min 61 W/m 23,0 km/h (4 Bft) 95,74 %
11.01.2016 13:12 5,4 C 5,6 C 4,4 C 97 % 15 lf 984,8 hPa 0,0 l/m 0 min 0 min 59 W/m 20,9 km/h (4 Bft) 97,87 %
11.01.2016 13:14 5,4 C 5,6 C 4,4 C 97 % 15 lf 984,8 hPa 0,0 l/m 0 min 0 min 70 W/m 18,8 km/h (3 Bft) 93,62 %
11.01.2016 13:16 5,5 C 5,6 C 4,4 C 97 % 15 lf 984,8 hPa 0,0 l/m 0 min 2 min 101 W/m 18,8 km/h (3 Bft) 95,74 %
11.01.2016 13:18 5,5 C 5,6 C 4,4 C 97 % 15 lf 984,8 hPa 0,2 l/m 0 min 2 min 102 W/m 23,0 km/h (4 Bft) 100,00 %
11.01.2016 13:20 5,5 C 5,6 C 4,4 C 97 % 15 lf 984,8 hPa 0,0 l/m 0 min 2 min 68 W/m 18,8 km/h (3 Bft) 97,83 %
11.01.2016 13:22 5,5 C 5,6 C 4,4 C 97 % 15 lf 984,7 hPa 0,0 l/m 0 min 2 min 61 W/m 14,6 km/h (3 Bft) 93,62 %
11.01.2016 13:24 5,5 C 5,6 C 4,4 C 97 % 15 lf 984,7 hPa 0,0 l/m 0 min 0 min 61 W/m 16,7 km/h (3 Bft) 97,87 %
11.01.2016 13:26 5,5 C 5,6 C 4,4 C 97 % 15 lf 984,6 hPa 0,0 l/m 0 min 0 min 59 W/m 14,6 km/h (3 Bft) 93,62 %
11.01.2016 13:28 5,6 C 5,6 C 4,4 C 97 % 15 lf 984,6 hPa 0,0 l/m 0 min 0 min 68 W/m 20,9 km/h (4 Bft) 95,74 %
11.01.2016 13:30 5,6 C 5,6 C 4,4 C 97 % 15 lf 984,6 hPa 0,0 l/m 0 min 0 min 72 W/m 16,7 km/h (3 Bft) 97,83 %
11.01.2016 13:32 5,6 C 5,6 C 4,4 C 97 % 15 lf 984,6 hPa 0,0 l/m 0 min 0 min 64 W/m 16,7 km/h (3 Bft) 95,74 %
11.01.2016 13:34 5,6 C 5,6 C 4,4 C 97 % 15 lf 984,7 hPa 0,0 l/m 0 min 0 min 51 W/m 20,9 km/h (4 Bft) 95,74 %
11.01.2016 13:36 5,6 C 5,6 C 4,4 C 97 % 15 lf 984,6 hPa 0,0 l/m 0 min 0 min 50 W/m 16,7 km/h (3 Bft) 97,87 %
11.01.2016 13:38 5,6 C 5,6 C 4,4 C 97 % 15 lf 984,5 hPa 0,0 l/m 0 min 2 min 50 W/m 14,6 km/h (3 Bft) 97,87 %
11.01.2016 13:40 5,6 C 5,6 C 4,4 C 97 % 15 lf 984,5 hPa 0,0 l/m 0 min 0 min 58 W/m 18,8 km/h (3 Bft) 97,87 %
11.01.2016 13:42 5,6 C 5,6 C 4,4 C 97 % 15 lf 984,5 hPa 0,0 l/m 0 min 0 min 63 W/m 20,9 km/h (4 Bft) 95,74 %
11.01.2016 13:44 5,6 C 5,6 C 4,4 C 97 % 15 lf 984,5 hPa 0,0 l/m 0 min 0 min 63 W/m 16,7 km/h (3 Bft) 97,83 %
11.01.2016 13:46 5,6 C 5,6 C 4,4 C 97 % 15 lf 984,4 hPa 0,0 l/m 0 min 0 min 49 W/m 23,0 km/h (4 Bft) 95,74 %
11.01.2016 13:48 5,6 C 5,6 C 4,4 C 97 % 15 lf 984,4 hPa 0,0 l/m 0 min 0 min 40 W/m 20,9 km/h (4 Bft) 93,62 %
11.01.2016 13:50 5,6 C 5,6 C 4,4 C 97 % 15 lf 984,3 hPa 0,0 l/m 0 min 0 min 41 W/m 14,6 km/h (3 Bft) 95,74 %
11.01.2016 13:52 5,6 C 5,6 C 4,4 C 97 % 15 lf 984,3 hPa 0,0 l/m 0 min 0 min 44 W/m 20,9 km/h (4 Bft) 97,87 %
11.01.2016 13:54 5,6 C 5,6 C 4,4 C 97 % 15 lf 984,2 hPa 0,0 l/m 0 min 0 min 47 W/m 16,7 km/h (3 Bft) 95,65 %
11.01.2016 13:56 5,6 C 5,6 C 4,4 C 97 % 15 lf 984,2 hPa 0,0 l/m 0 min 0 min 44 W/m 18,8 km/h (3 Bft) 97,87 %
11.01.2016 13:58 5,5 C 5,6 C 4,4 C 97 % 15 lf 984,2 hPa 0,0 l/m 0 min 0 min 45 W/m 23,0 km/h (4 Bft) 100,00 %
11.01.2016 14:00 5,5 C 5,6 C 4,4 C 97 % 15 lf 984,2 hPa 0,0 l/m 0 min 0 min 50 W/m 23,0 km/h (4 Bft) 93,62 %
11.01.2016 14:02 5,5 C 5,6 C 4,4 C 97 % 15 lf 984,2 hPa 0,0 l/m 0 min 0 min 55 W/m 18,8 km/h (3 Bft) 100,00 %
11.01.2016 14:04 5,5 C 5,6 C 4,4 C 97 % 15 lf 984,2 hPa 0,0 l/m 0 min 0 min 59 W/m 20,9 km/h (4 Bft) 95,74 %
11.01.2016 14:06 5,6 C 5,6 C 4,4 C 97 % 15 lf 984,2 hPa 0,0 l/m 0 min 0 min 79 W/m 20,9 km/h (4 Bft) 100,00 %
11.01.2016 14:08 5,6 C 5,6 C 4,4 C 97 % 15 lf 984,2 hPa 0,0 l/m 0 min 0 min 79 W/m 18,8 km/h (3 Bft) 95,74 %
11.01.2016 14:10 5,6 C 6,1 C 4,4 C 97 % 15 lf 984,1 hPa 0,0 l/m 0 min 0 min 75 W/m 20,9 km/h (4 Bft) 93,62 %
11.01.2016 14:12 5,6 C 6,1 C 4,4 C 97 % 15 lf 984,2 hPa 0,0 l/m 0 min 0 min 52 W/m 23,0 km/h (4 Bft) 97,87 %
11.01.2016 14:14 5,6 C 5,6 C 4,4 C 97 % 15 lf 984,1 hPa 0,0 l/m 0 min 0 min 33 W/m 14,6 km/h (3 Bft) 91,49 %
11.01.2016 14:16 5,7 C 6,1 C 4,4 C 98 % 15 lf 984,2 hPa 0,0 l/m 0 min 0 min 36 W/m 20,9 km/h (4 Bft) 97,87 %
11.01.2016 14:18 5,7 C 6,1 C 4,4 C 98 % 15 lf 984,1 hPa 0,0 l/m 0 min 0 min 39 W/m 25,1 km/h (4 Bft) 97,83 %
11.01.2016 14:20 5,7 C 6,1 C 4,4 C 98 % 15 lf 984,1 hPa 0,0 l/m 0 min 0 min 47 W/m 16,7 km/h (3 Bft) 95,74 %
11.01.2016 14:22 5,7 C 6,1 C 4,4 C 98 % 15 lf 984,1 hPa 0,0 l/m 0 min 0 min 46 W/m 18,8 km/h (3 Bft) 95,74 %
11.01.2016 14:24 5,7 C 6,1 C 4,4 C 98 % 15 lf 984,1 hPa 0,0 l/m 0 min 0 min 47 W/m 27,2 km/h (4 Bft) 97,87 %
11.01.2016 14:26 5,7 C 6,1 C 4,4 C 98 % 15 lf 984,1 hPa 0,0 l/m 0 min 0 min 45 W/m 25,1 km/h (4 Bft) 95,74 %
11.01.2016 14:28 5,7 C 6,1 C 4,4 C 98 % 15 lf 983,9 hPa 0,0 l/m 0 min 0 min 38 W/m 14,6 km/h (3 Bft) 93,62 %
11.01.2016 14:30 5,8 C 6,1 C 4,4 C 98 % 15 lf 984,0 hPa 0,0 l/m 0 min 0 min 36 W/m 16,7 km/h (3 Bft) 95,65 %
11.01.2016 14:32 5,8 C 6,1 C 4,4 C 98 % 15 lf 983,9 hPa 0,0 l/m 0 min 0 min 40 W/m 16,7 km/h (3 Bft) 93,62 %
11.01.2016 14:34 5,8 C 6,1 C 4,4 C 97 % 15 lf 984,0 hPa 0,0 l/m 0 min 0 min 44 W/m 18,8 km/h (3 Bft) 95,74 %
11.01.2016 14:36 5,8 C 6,1 C 4,4 C 97 % 15 lf 984,0 hPa 0,0 l/m 0 min 0 min 36 W/m 16,7 km/h (3 Bft) 95,74 %
11.01.2016 14:38 5,9 C 6,1 C 4,4 C 97 % 14 lf 984,1 hPa 0,0 l/m 0 min 0 min 39 W/m 14,6 km/h (3 Bft) 93,62 %
11.01.2016 14:40 5,9 C 6,1 C 4,4 C 97 % 14 lf 984,0 hPa 0,0 l/m 0 min 0 min 53 W/m 18,8 km/h (3 Bft) 93,48 %
11.01.2016 14:42 5,9 C 6,1 C 4,4 C 97 % 14 lf 984,0 hPa 0,0 l/m 0 min 0 min 62 W/m 23,0 km/h (4 Bft) 95,74 %
11.01.2016 14:44 5,9 C 6,1 C 4,4 C 97 % 13 lf 984,1 hPa 0,0 l/m 0 min 0 min 61 W/m 18,8 km/h (3 Bft) 95,74 %
11.01.2016 14:46 5,9 C 6,1 C 5,0 C 97 % 13 lf 984,1 hPa 0,0 l/m 0 min 0 min 70 W/m 10,5 km/h (2 Bft) 95,74 %
11.01.2016 14:48 5,9 C 6,1 C 5,0 C 97 % 12 lf 984,1 hPa 0,0 l/m 0 min 0 min 71 W/m 18,8 km/h (3 Bft) 95,74 %
11.01.2016 14:50 6,0 C 6,1 C 5,0 C 97 % 11 lf 984,1 hPa 0,0 l/m 0 min 0 min 69 W/m 8,4 km/h (2 Bft) 93,62 %
11.01.2016 14:52 6,0 C 6,1 C 5,0 C 97 % 9 lf 984,0 hPa 0,0 l/m 0 min 0 min 62 W/m 18,8 km/h (3 Bft) 95,65 %
11.01.2016 14:54 6,1 C 6,1 C 5,0 C 97 % 7 lf 984,0 hPa 0,0 l/m 0 min 0 min 56 W/m 18,8 km/h (3 Bft) 95,74 %
11.01.2016 14:56 6,1 C 6,1 C 5,0 C 97 % 6 lf 984,1 hPa 0,0 l/m 0 min 0 min 55 W/m 14,6 km/h (3 Bft) 91,49 %
11.01.2016 14:58 6,1 C 6,1 C 5,0 C 97 % 4 lf 984,1 hPa 0,0 l/m 0 min 2 min 74 W/m 18,8 km/h (3 Bft) 97,87 %
11.01.2016 15:00 6,2 C 6,7 C 5,0 C 97 % 3 lf 984,1 hPa 0,0 l/m 0 min 0 min 83 W/m 23,0 km/h (4 Bft) 95,74 %
11.01.2016 15:02 6,2 C 6,7 C 5,0 C 97 % 3 lf 984,1 hPa 0,0 l/m 0 min 0 min 79 W/m 27,2 km/h (4 Bft) 93,62 %
11.01.2016 15:04 6,2 C 6,7 C 5,0 C 97 % 2 lf 984,1 hPa 0,0 l/m 0 min 0 min 73 W/m 23,0 km/h (4 Bft) 93,48 %
11.01.2016 15:06 6,3 C 6,7 C 5,0 C 97 % 1 lf 984,1 hPa 0,0 l/m 0 min 0 min 59 W/m 20,9 km/h (4 Bft) 97,87 %
11.01.2016 15:08 6,3 C 6,7 C 5,0 C 97 % 0 lf 984,1 hPa 0,0 l/m 0 min 0 min 46 W/m 20,9 km/h (4 Bft) 89,36 %
11.01.2016 15:10 6,3 C 6,7 C 5,0 C 97 % 0 lf 984,1 hPa 0,0 l/m 0 min 0 min 33 W/m 27,2 km/h (4 Bft) 97,87 %
11.01.2016 15:12 6,4 C 6,7 C 5,0 C 97 % 0 lf 984,0 hPa 0,0 l/m 0 min 0 min 35 W/m 25,1 km/h (4 Bft) 97,87 %
11.01.2016 15:14 6,4 C 6,7 C 5,0 C 97 % 0 lf 984,1 hPa 0,0 l/m 0 min 0 min 46 W/m 18,8 km/h (3 Bft) 95,74 %
11.01.2016 15:16 6,4 C 6,7 C 5,0 C 97 % 0 lf 984,1 hPa 0,0 l/m 0 min 0 min 50 W/m 29,3 km/h (5 Bft) 97,83 %
11.01.2016 15:18 6,4 C 6,7 C 5,0 C 97 % 0 lf 984,0 hPa 0,0 l/m 0 min 0 min 49 W/m 16,7 km/h (3 Bft) 95,74 %
11.01.2016 15:20 6,4 C 6,7 C 5,0 C 97 % 0 lf 984,0 hPa 0,0 l/m 0 min 0 min 49 W/m 14,6 km/h (3 Bft) 95,74 %
11.01.2016 15:22 6,4 C 6,7 C 5,0 C 97 % 0 lf 983,9 hPa 0,0 l/m 0 min 0 min 52 W/m 16,7 km/h (3 Bft) 93,62 %
11.01.2016 15:24 6,4 C 6,7 C 5,0 C 97 % 0 lf 983,9 hPa 0,0 l/m 0 min 0 min 53 W/m 18,8 km/h (3 Bft) 97,87 %
11.01.2016 15:26 6,5 C 6,7 C 5,0 C 96 % 0 lf 983,9 hPa 0,0 l/m 0 min 0 min 51 W/m 14,6 km/h (3 Bft) 95,74 %
11.01.2016 15:28 6,5 C 6,7 C 5,0 C 97 % 2 lf 983,8 hPa 0,0 l/m 0 min 2 min 53 W/m 16,7 km/h (3 Bft) 93,48 %
11.01.2016 15:30 6,5 C 6,1 C 5,0 C 96 % 1 lf 983,8 hPa 0,0 l/m 0 min 2 min 52 W/m 18,8 km/h (3 Bft) 97,87 %
11.01.2016 15:32 6,5 C 6,1 C 5,0 C 96 % 1 lf 983,8 hPa 0,0 l/m 0 min 2 min 49 W/m 20,9 km/h (4 Bft) 95,74 %
11.01.2016 15:34 6,6 C 6,1 C 5,0 C 96 % 0 lf 983,8 hPa 0,0 l/m 0 min 0 min 49 W/m 18,8 km/h (3 Bft) 97,87 %
11.01.2016 15:36 6,6 C 6,1 C 5,0 C 96 % 0 lf 983,8 hPa 0,0 l/m 0 min 0 min 46 W/m 16,7 km/h (3 Bft) 97,87 %
11.01.2016 15:38 6,6 C 6,1 C 5,0 C 96 % 0 lf 983,8 hPa 0,0 l/m 0 min 0 min 46 W/m 14,6 km/h (3 Bft) 97,87 %
11.01.2016 15:40 6,6 C 6,1 C 5,0 C 96 % 0 lf 983,8 hPa 0,0 l/m 0 min 0 min 44 W/m 18,8 km/h (3 Bft) 97,83 %
11.01.2016 15:42 6,6 C 6,1 C 5,0 C 96 % 0 lf 983,8 hPa 0,0 l/m 0 min 0 min 38 W/m 12,6 km/h (3 Bft) 97,87 %
11.01.2016 15:44 6,6 C 6,1 C 5,0 C 96 % 0 lf 983,8 hPa 0,0 l/m 0 min 0 min 35 W/m 14,6 km/h (3 Bft) 97,87 %
11.01.2016 15:46 6,6 C 6,7 C 5,0 C 96 % 0 lf 983,8 hPa 0,0 l/m 0 min 0 min 39 W/m 23,0 km/h (4 Bft) 95,74 %
11.01.2016 15:48 6,6 C 6,7 C 5,0 C 96 % 0 lf 983,8 hPa 0,0 l/m 0 min 0 min 40 W/m 18,8 km/h (3 Bft) 93,62 %
11.01.2016 15:50 6,6 C 6,7 C 5,0 C 96 % 0 lf 983,8 hPa 0,0 l/m 0 min 0 min 37 W/m 14,6 km/h (3 Bft) 93,48 %
11.01.2016 15:52 6,6 C 6,1 C 5,0 C 95 % 0 lf 983,8 hPa 0,0 l/m 0 min 0 min 34 W/m 10,5 km/h (2 Bft) 95,74 %
11.01.2016 15:54 6,6 C 6,1 C 5,0 C 95 % 0 lf 983,9 hPa 0,0 l/m 0 min 0 min 33 W/m 14,6 km/h (3 Bft) 97,87 %
11.01.2016 15:56 6,6 C 6,1 C 5,0 C 96 % 0 lf 983,9 hPa 0,0 l/m 0 min 0 min 33 W/m 12,6 km/h (3 Bft) 97,87 %
11.01.2016 15:58 6,6 C 6,1 C 5,0 C 95 % 0 lf 983,9 hPa 0,0 l/m 0 min 0 min 30 W/m 12,6 km/h (3 Bft) 95,74 %
11.01.2016 16:00 6,6 C 6,1 C 5,0 C 95 % 0 lf 983,9 hPa 0,0 l/m 0 min 0 min 28 W/m 12,6 km/h (3 Bft) 91,49 %
11.01.2016 16:02 6,6 C 6,1 C 5,0 C 95 % 0 lf 984,0 hPa 0,0 l/m 0 min 0 min 22 W/m 16,7 km/h (3 Bft) 97,83 %
11.01.2016 16:04 6,6 C 6,1 C 5,0 C 95 % 0 lf 984,1 hPa 0,0 l/m 0 min 0 min 18 W/m 14,6 km/h (3 Bft) 95,74 %
11.01.2016 16:06 6,6 C 6,1 C 5,0 C 95 % 0 lf 984,1 hPa 0,0 l/m 0 min 0 min 20 W/m 18,8 km/h (3 Bft) 93,62 %
11.01.2016 16:08 6,6 C 6,1 C 5,0 C 95 % 0 lf 984,1 hPa 0,0 l/m 0 min 0 min 20 W/m 18,8 km/h (3 Bft) 95,74 %
11.01.2016 16:10 6,6 C 6,1 C 5,0 C 95 % 0 lf 984,1 hPa 0,0 l/m 0 min 0 min 20 W/m 18,8 km/h (3 Bft) 95,74 %
11.01.2016 16:12 6,6 C 6,7 C 5,0 C 95 % 0 lf 984,1 hPa 0,0 l/m 0 min 0 min 18 W/m 18,8 km/h (3 Bft) 95,74 %
11.01.2016 16:14 6,6 C 6,7 C 5,0 C 95 % 0 lf 984,1 hPa 0,0 l/m 0 min 0 min 18 W/m 23,0 km/h (4 Bft) 93,48 %
11.01.2016 16:16 6,6 C 6,7 C 5,0 C 95 % 0 lf 984,1 hPa 0,0 l/m 0 min 0 min 19 W/m 27,2 km/h (4 Bft) 95,74 %
11.01.2016 16:18 6,6 C 6,7 C 4,4 C 95 % 0 lf 984,1 hPa 0,0 l/m 0 min 0 min 18 W/m 18,8 km/h (3 Bft) 95,74 %
11.01.2016 16:20 6,6 C 6,7 C 4,4 C 95 % 0 lf 984,1 hPa 0,0 l/m 0 min 0 min 15 W/m 18,8 km/h (3 Bft) 97,87 %
11.01.2016 16:22 6,6 C 6,7 C 4,4 C 95 % 0 lf 984,1 hPa 0,0 l/m 0 min 0 min 12 W/m 18,8 km/h (3 Bft) 97,87 %
11.01.2016 16:24 6,6 C 6,7 C 4,4 C 95 % 0 lf 984,1 hPa 0,0 l/m 0 min 0 min 10 W/m 16,7 km/h (3 Bft) 97,87 %
11.01.2016 16:26 6,6 C 6,7 C 4,4 C 94 % 0 lf 984,1 hPa 0,0 l/m 0 min 0 min 9 W/m 16,7 km/h (3 Bft) 95,65 %
11.01.2016 16:28 6,6 C 6,7 C 5,0 C 94 % 0 lf 984,1 hPa 0,0 l/m 0 min 0 min 7 W/m 14,6 km/h (3 Bft) 93,62 %
11.01.2016 16:30 6,6 C 6,7 C 5,0 C 94 % 0 lf 984,1 hPa 0,0 l/m 0 min 2 min 6 W/m 14,6 km/h (3 Bft) 93,62 %
11.01.2016 16:32 6,6 C 6,7 C 5,0 C 94 % 0 lf 984,1 hPa 0,0 l/m 0 min 0 min 7 W/m 16,7 km/h (3 Bft) 97,87 %
11.01.2016 16:34 6,6 C 6,7 C 5,0 C 94 % 0 lf 984,0 hPa 0,0 l/m 0 min 0 min 7 W/m 16,7 km/h (3 Bft) 97,87 %
11.01.2016 16:36 6,7 C 6,7 C 5,0 C 94 % 0 lf 984,0 hPa 0,0 l/m 0 min 0 min 9 W/m 16,7 km/h (3 Bft) 97,87 %
11.01.2016 16:38 6,7 C 6,7 C 5,0 C 94 % 0 lf 984,0 hPa 0,0 l/m 0 min 0 min 9 W/m 20,9 km/h (4 Bft) 97,83 %
11.01.2016 16:40 6,7 C 6,7 C 5,0 C 94 % 0 lf 984,0 hPa 0,0 l/m 0 min 0 min 8 W/m 16,7 km/h (3 Bft) 95,74 %
11.01.2016 16:42 6,7 C 6,7 C 5,0 C 94 % 0 lf 984,0 hPa 0,0 l/m 0 min 2 min 7 W/m 16,7 km/h (3 Bft) 95,74 %
11.01.2016 16:44 6,7 C 6,1 C 5,0 C 94 % 0 lf 984,1 hPa 0,0 l/m 0 min 2 min 5 W/m 16,7 km/h (3 Bft) 97,87 %
11.01.2016 16:46 6,7 C 6,1 C 5,0 C 94 % 0 lf 984,1 hPa 0,0 l/m 0 min 2 min 2 W/m 18,8 km/h (3 Bft) 93,62 %
11.01.2016 16:48 6,7 C 6,1 C 5,0 C 94 % 1 lf 984,2 hPa 0,0 l/m 0 min 2 min 0 W/m 14,6 km/h (3 Bft) 93,62 %
11.01.2016 16:50 6,7 C 6,1 C 5,0 C 94 % 14 lf 984,2 hPa 0,2 l/m 0 min 2 min 0 W/m 14,6 km/h (3 Bft) 97,83 %
11.01.2016 16:52 6,7 C 6,1 C 5,0 C 94 % 14 lf 984,2 hPa 0,0 l/m 0 min 2 min 0 W/m 14,6 km/h (3 Bft) 95,74 %
11.01.2016 16:54 6,7 C 6,1 C 5,0 C 94 % 14 lf 984,3 hPa 0,0 l/m 0 min 2 min 0 W/m 12,6 km/h (3 Bft) 95,74 %
11.01.2016 16:56 6,7 C 6,1 C 5,0 C 94 % 15 lf 984,2 hPa 0,0 l/m 0 min 2 min 0 W/m 12,6 km/h (3 Bft) 97,87 %
11.01.2016 16:58 6,7 C 6,1 C 5,0 C 94 % 15 lf 984,2 hPa 0,0 l/m 0 min 2 min 0 W/m 18,8 km/h (3 Bft) 93,62 %
11.01.2016 17:00 6,7 C 6,1 C 5,0 C 94 % 15 lf 984,2 hPa 0,2 l/m 0 min 2 min 0 W/m 16,7 km/h (3 Bft) 95,65 %
11.01.2016 17:02 6,7 C 6,1 C 4,4 C 94 % 15 lf 984,2 hPa 0,0 l/m 0 min 2 min 0 W/m 12,6 km/h (3 Bft) 93,62 %
11.01.2016 17:04 6,7 C 6,1 C 4,4 C 94 % 15 lf 984,2 hPa 0,0 l/m 0 min 0 min 0 W/m 16,7 km/h (3 Bft) 93,62 %
11.01.2016 17:06 6,7 C 6,1 C 4,4 C 94 % 14 lf 984,2 hPa 0,0 l/m 0 min 2 min 0 W/m 14,6 km/h (3 Bft) 95,74 %
11.01.2016 17:08 6,7 C 6,1 C 4,4 C 94 % 14 lf 984,1 hPa 0,0 l/m 0 min 2 min 0 W/m 18,8 km/h (3 Bft) 95,74 %
11.01.2016 17:10 6,7 C 6,1 C 4,4 C 94 % 14 lf 984,2 hPa 0,0 l/m 0 min 2 min 0 W/m 18,8 km/h (3 Bft) 93,62 %
11.01.2016 17:12 6,7 C 6,1 C 4,4 C 94 % 14 lf 984,2 hPa 0,0 l/m 0 min 0 min 0 W/m 20,9 km/h (4 Bft) 91,30 %
11.01.2016 17:14 6,6 C 6,1 C 4,4 C 94 % 14 lf 984,3 hPa 0,0 l/m 0 min 0 min 0 W/m 16,7 km/h (3 Bft) 91,49 %
11.01.2016 17:16 6,6 C 6,1 C 4,4 C 94 % 14 lf 984,3 hPa 0,0 l/m 0 min 0 min 0 W/m 20,9 km/h (4 Bft) 93,62 %
11.01.2016 17:18 6,6 C 6,1 C 4,4 C 94 % 14 lf 984,2 hPa 0,0 l/m 0 min 0 min 0 W/m 25,1 km/h (4 Bft) 93,62 %
11.01.2016 17:20 6,6 C 6,1 C 4,4 C 94 % 14 lf 984,3 hPa 0,0 l/m 0 min 0 min 0 W/m 16,7 km/h (3 Bft) 93,62 %
11.01.2016 17:22 6,6 C 6,1 C 4,4 C 94 % 14 lf 984,3 hPa 0,0 l/m 0 min 0 min 0 W/m 18,8 km/h (3 Bft) 91,49 %
11.01.2016 17:24 6,5 C 6,1 C 4,4 C 94 % 13 lf 984,3 hPa 0,0 l/m 0 min 0 min 0 W/m 20,9 km/h (4 Bft) 89,13 %
11.01.2016 17:26 6,5 C 6,1 C 4,4 C 94 % 13 lf 984,3 hPa 0,0 l/m 0 min 0 min 0 W/m 20,9 km/h (4 Bft) 91,49 %
11.01.2016 17:28 6,5 C 6,1 C 4,4 C 94 % 13 lf 984,3 hPa 0,0 l/m 0 min 0 min 0 W/m 25,1 km/h (4 Bft) 91,49 %
11.01.2016 17:30 6,4 C 6,1 C 4,4 C 94 % 13 lf 984,3 hPa 0,0 l/m 0 min 0 min 0 W/m 16,7 km/h (3 Bft) 89,36 %
11.01.2016 17:32 6,4 C 6,1 C 4,4 C 94 % 12 lf 984,3 hPa 0,0 l/m 0 min 0 min 0 W/m 20,9 km/h (4 Bft) 95,74 %
11.01.2016 17:34 6,4 C 6,1 C 4,4 C 94 % 12 lf 984,4 hPa 0,0 l/m 0 min 0 min 0 W/m 16,7 km/h (3 Bft) 93,62 %
11.01.2016 17:36 6,4 C 6,1 C 4,4 C 94 % 12 lf 984,4 hPa 0,0 l/m 0 min 0 min 0 W/m 18,8 km/h (3 Bft) 95,65 %
11.01.2016 17:38 6,4 C 6,1 C 4,4 C 94 % 11 lf 984,4 hPa 0,0 l/m 0 min 0 min 0 W/m 23,0 km/h (4 Bft) 93,62 %
11.01.2016 17:40 6,4 C 5,6 C 4,4 C 94 % 10 lf 984,4 hPa 0,0 l/m 0 min 0 min 0 W/m 20,9 km/h (4 Bft) 95,74 %
11.01.2016 17:42 6,3 C 5,6 C 4,4 C 94 % 9 lf 984,5 hPa 0,0 l/m 0 min 0 min 0 W/m 25,1 km/h (4 Bft) 91,49 %
11.01.2016 17:44 6,3 C 5,6 C 4,4 C 94 % 9 lf 984,4 hPa 0,0 l/m 0 min 0 min 0 W/m 20,9 km/h (4 Bft) 97,87 %
11.01.2016 17:46 6,3 C 5,6 C 4,4 C 94 % 7 lf 984,4 hPa 0,0 l/m 0 min 0 min 0 W/m 20,9 km/h (4 Bft) 97,87 %
11.01.2016 17:48 6,3 C 5,6 C 4,4 C 94 % 6 lf 984,5 hPa 0,0 l/m 0 min 0 min 0 W/m 16,7 km/h (3 Bft) 95,65 %
11.01.2016 17:50 6,2 C 5,6 C 3,9 C 94 % 4 lf 984,4 hPa 0,0 l/m 0 min 0 min 0 W/m 27,2 km/h (4 Bft) 97,87 %
11.01.2016 17:52 6,2 C 5,6 C 3,9 C 94 % 4 lf 984,5 hPa 0,0 l/m 0 min 0 min 0 W/m 27,2 km/h (4 Bft) 97,87 %
11.01.2016 17:54 6,2 C 5,6 C 3,9 C 94 % 4 lf 984,5 hPa 0,0 l/m 0 min 0 min 0 W/m 18,8 km/h (3 Bft) 100,00 %
11.01.2016 17:56 6,2 C 5,6 C 3,9 C 94 % 3 lf 984,5 hPa 0,0 l/m 0 min 0 min 0 W/m 20,9 km/h (4 Bft) 95,74 %
11.01.2016 17:58 6,1 C 5,6 C 3,9 C 94 % 3 lf 984,5 hPa 0,0 l/m 0 min 0 min 0 W/m 27,2 km/h (4 Bft) 95,74 %
11.01.2016 18:00 6,1 C 5,6 C 3,9 C 93 % 2 lf 984,6 hPa 0,0 l/m 0 min 0 min 0 W/m 29,3 km/h (5 Bft) 95,65 %
11.01.2016 18:02 6,1 C 5,6 C 3,9 C 93 % 1 lf 984,5 hPa 0,0 l/m 0 min 0 min 0 W/m 25,1 km/h (4 Bft) 97,87 %
11.01.2016 18:04 6,1 C 5,6 C 3,9 C 93 % 1 lf 984,5 hPa 0,0 l/m 0 min 0 min 0 W/m 29,3 km/h (5 Bft) 95,74 %
11.01.2016 18:06 6,0 C 5,6 C 3,9 C 93 % 1 lf 984,5 hPa 0,0 l/m 0 min 0 min 0 W/m 18,8 km/h (3 Bft) 97,87 %
11.01.2016 18:08 6,0 C 5,6 C 3,9 C 93 % 2 lf 984,6 hPa 0,0 l/m 0 min 2 min 0 W/m 25,1 km/h (4 Bft) 95,74 %
11.01.2016 18:10 6,0 C 5,6 C 3,9 C 93 % 1 lf 984,6 hPa 0,0 l/m 0 min 2 min 0 W/m 31,4 km/h (5 Bft) 100,00 %
11.01.2016 18:12 5,9 C 5,6 C 3,9 C 93 % 3 lf 984,6 hPa 0,0 l/m 0 min 2 min 0 W/m 16,7 km/h (3 Bft) 100,00 %
11.01.2016 18:14 5,9 C 5,6 C 3,9 C 93 % 3 lf 984,6 hPa 0,0 l/m 0 min 2 min 0 W/m 18,8 km/h (3 Bft) 100,00 %
11.01.2016 18:16 5,9 C 5,6 C 3,9 C 93 % 6 lf 984,6 hPa 0,0 l/m 0 min 2 min 0 W/m 18,8 km/h (3 Bft) 95,74 %
11.01.2016 18:18 5,9 C 5,6 C 3,9 C 93 % 10 lf 984,6 hPa 0,0 l/m 0 min 2 min 0 W/m 25,1 km/h (4 Bft) 95,74 %
11.01.2016 18:20 5,9 C 5,6 C 3,9 C 93 % 12 lf 984,6 hPa 0,0 l/m 0 min 2 min 0 W/m 20,9 km/h (4 Bft) 97,87 %
11.01.2016 18:22 5,9 C 5,0 C 3,9 C 93 % 14 lf 984,6 hPa 0,0 l/m 0 min 2 min 0 W/m 20,9 km/h (4 Bft) 97,83 %
11.01.2016 18:24 5,9 C 5,0 C 3,9 C 93 % 15 lf 984,6 hPa 0,0 l/m 0 min 2 min 0 W/m 25,1 km/h (4 Bft) 100,00 %
11.01.2016 18:26 5,9 C 5,0 C 3,9 C 93 % 15 lf 984,5 hPa 0,0 l/m 0 min 2 min 0 W/m 25,1 km/h (4 Bft) 95,74 %
11.01.2016 18:28 5,9 C 5,0 C 3,9 C 93 % 15 lf 984,6 hPa 0,0 l/m 0 min 2 min 0 W/m 16,7 km/h (3 Bft) 100,00 %
11.01.2016 18:30 5,8 C 5,0 C 3,9 C 93 % 15 lf 984,6 hPa 0,0 l/m 0 min 2 min 0 W/m 20,9 km/h (4 Bft) 100,00 %
11.01.2016 18:32 5,8 C 5,0 C 3,9 C 93 % 15 lf 984,6 hPa 0,2 l/m 0 min 2 min 0 W/m 16,7 km/h (3 Bft) 100,00 %
11.01.2016 18:34 5,8 C 5,0 C 3,9 C 93 % 15 lf 984,6 hPa 0,0 l/m 0 min 2 min 0 W/m 20,9 km/h (4 Bft) 100,00 %
11.01.2016 18:36 5,8 C 5,0 C 3,9 C 93 % 15 lf 984,6 hPa 0,0 l/m 0 min 2 min 0 W/m 23,0 km/h (4 Bft) 93,62 %
11.01.2016 18:38 5,8 C 5,0 C 3,9 C 93 % 15 lf 984,6 hPa 0,0 l/m 0 min 2 min 0 W/m 31,4 km/h (5 Bft) 93,62 %
11.01.2016 18:40 5,8 C 5,0 C 3,9 C 94 % 15 lf 984,7 hPa 0,0 l/m 0 min 2 min 0 W/m 16,7 km/h (3 Bft) 97,87 %
11.01.2016 18:42 5,8 C 5,0 C 3,9 C 94 % 15 lf 984,7 hPa 0,0 l/m 0 min 2 min 0 W/m 18,8 km/h (3 Bft) 100,00 %
11.01.2016 18:44 5,7 C 5,0 C 3,9 C 94 % 15 lf 984,6 hPa 0,0 l/m 0 min 2 min 0 W/m 14,6 km/h (3 Bft) 97,87 %
11.01.2016 18:46 5,7 C 5,0 C 3,9 C 94 % 15 lf 984,7 hPa 0,0 l/m 0 min 2 min 0 W/m 16,7 km/h (3 Bft) 97,83 %
11.01.2016 18:48 5,7 C 5,0 C 3,9 C 94 % 15 lf 984,7 hPa 0,2 l/m 0 min 2 min 0 W/m 18,8 km/h (3 Bft) 95,74 %
11.01.2016 18:50 5,7 C 5,0 C 3,9 C 94 % 15 lf 984,7 hPa 0,0 l/m 0 min 2 min 0 W/m 14,6 km/h (3 Bft) 97,87 %
11.01.2016 18:52 5,7 C 5,0 C 3,9 C 94 % 15 lf 984,7 hPa 0,0 l/m 0 min 2 min 0 W/m 14,6 km/h (3 Bft) 95,74 %
11.01.2016 18:54 5,7 C 5,0 C 3,9 C 94 % 15 lf 984,7 hPa 0,0 l/m 0 min 2 min 0 W/m 14,6 km/h (3 Bft) 93,62 %
11.01.2016 18:56 5,7 C 5,0 C 3,9 C 94 % 15 lf 984,7 hPa 0,0 l/m 0 min 0 min 0 W/m 14,6 km/h (3 Bft) 95,74 %
11.01.2016 18:58 5,7 C 5,0 C 3,9 C 94 % 15 lf 984,7 hPa 0,0 l/m 0 min 0 min 0 W/m 14,6 km/h (3 Bft) 95,65 %
11.01.2016 19:00 5,7 C 5,0 C 3,9 C 94 % 15 lf 984,7 hPa 0,0 l/m 0 min 0 min 0 W/m 16,7 km/h (3 Bft) 97,87 %
11.01.2016 19:02 5,7 C 5,6 C 3,9 C 94 % 15 lf 984,7 hPa 0,0 l/m 0 min 0 min 0 W/m 14,6 km/h (3 Bft) 95,74 %
11.01.2016 19:04 5,7 C 5,6 C 3,9 C 94 % 15 lf 984,7 hPa 0,0 l/m 0 min 0 min 0 W/m 12,6 km/h (3 Bft) 95,74 %
11.01.2016 19:06 5,7 C 5,6 C 3,9 C 94 % 15 lf 984,7 hPa 0,0 l/m 0 min 0 min 0 W/m 14,6 km/h (3 Bft) 95,74 %
11.01.2016 19:08 5,7 C 5,6 C 3,9 C 94 % 15 lf 984,7 hPa 0,0 l/m 0 min 0 min 0 W/m 12,6 km/h (3 Bft) 97,87 %
11.01.2016 19:10 5,7 C 5,6 C 3,9 C 94 % 15 lf 984,7 hPa 0,0 l/m 0 min 0 min 0 W/m 10,5 km/h (2 Bft) 97,83 %
11.01.2016 19:12 5,7 C 5,6 C 3,9 C 94 % 15 lf 984,7 hPa 0,0 l/m 0 min 0 min 0 W/m 14,6 km/h (3 Bft) 97,87 %
11.01.2016 19:14 5,7 C 5,6 C 3,9 C 95 % 15 lf 984,8 hPa 0,0 l/m 0 min 0 min 0 W/m 12,6 km/h (3 Bft) 100,00 %
11.01.2016 19:16 5,7 C 5,6 C 3,9 C 95 % 15 lf 984,8 hPa 0,0 l/m 0 min 0 min 0 W/m 12,6 km/h (3 Bft) 100,00 %
11.01.2016 19:18 5,7 C 5,6 C 3,9 C 95 % 15 lf 984,8 hPa 0,0 l/m 0 min 0 min 0 W/m 14,6 km/h (3 Bft) 97,87 %
11.01.2016 19:20 5,6 C 5,6 C 3,9 C 95 % 15 lf 984,8 hPa 0,0 l/m 0 min 0 min 0 W/m 14,6 km/h (3 Bft) 97,87 %
11.01.2016 19:22 5,6 C 5,6 C 3,9 C 95 % 15 lf 984,8 hPa 0,0 l/m 0 min 0 min 0 W/m 12,6 km/h (3 Bft) 100,00 %
11.01.2016 19:24 5,6 C 5,6 C 3,9 C 95 % 15 lf 984,9 hPa 0,0 l/m 0 min 0 min 0 W/m 14,6 km/h (3 Bft) 97,87 %
11.01.2016 19:26 5,6 C 5,6 C 3,9 C 95 % 15 lf 984,9 hPa 0,0 l/m 0 min 0 min 0 W/m 12,6 km/h (3 Bft) 100,00 %
11.01.2016 19:28 5,6 C 5,6 C 3,9 C 95 % 15 lf 984,9 hPa 0,0 l/m 0 min 0 min 0 W/m 16,7 km/h (3 Bft) 100,00 %
11.01.2016 19:30 5,6 C 5,6 C 3,9 C 95 % 15 lf 984,9 hPa 0,0 l/m 0 min 0 min 0 W/m 16,7 km/h (3 Bft) 100,00 %
11.01.2016 19:32 5,6 C 5,6 C 3,9 C 95 % 15 lf 984,9 hPa 0,0 l/m 0 min 0 min 0 W/m 20,9 km/h (4 Bft) 97,87 %
11.01.2016 19:34 5,6 C 5,6 C 3,9 C 95 % 15 lf 984,9 hPa 0,0 l/m 0 min 0 min 0 W/m 10,5 km/h (2 Bft) 97,83 %
11.01.2016 19:36 5,6 C 5,6 C 3,9 C 95 % 15 lf 984,9 hPa 0,0 l/m 0 min 0 min 0 W/m 8,4 km/h (2 Bft) 97,87 %
11.01.2016 19:38 5,6 C 5,6 C 3,9 C 95 % 15 lf 984,9 hPa 0,0 l/m 0 min 0 min 0 W/m 16,7 km/h (3 Bft) 97,87 %
11.01.2016 19:40 5,6 C 5,6 C 4,4 C 95 % 15 lf 984,9 hPa 0,0 l/m 0 min 0 min 0 W/m 12,6 km/h (3 Bft) 97,87 %
11.01.2016 19:42 5,7 C 5,6 C 4,4 C 95 % 15 lf 984,9 hPa 0,0 l/m 0 min 0 min 0 W/m 18,8 km/h (3 Bft) 97,87 %
11.01.2016 19:44 5,7 C 5,6 C 4,4 C 95 % 15 lf 985,0 hPa 0,0 l/m 0 min 0 min 0 W/m 12,6 km/h (3 Bft) 95,65 %
11.01.2016 19:46 5,7 C 5,6 C 4,4 C 95 % 15 lf 984,9 hPa 0,0 l/m 0 min 0 min 0 W/m 16,7 km/h (3 Bft) 91,49 %
11.01.2016 19:48 5,7 C 5,6 C 4,4 C 95 % 15 lf 985,0 hPa 0,0 l/m 0 min 0 min 0 W/m 16,7 km/h (3 Bft) 95,74 %
11.01.2016 19:50 5,7 C 5,6 C 4,4 C 95 % 15 lf 984,9 hPa 0,0 l/m 0 min 0 min 0 W/m 10,5 km/h (2 Bft) 95,74 %
11.01.2016 19:52 5,7 C 5,6 C 4,4 C 95 % 15 lf 984,9 hPa 0,0 l/m 0 min 0 min 0 W/m 10,5 km/h (2 Bft) 95,74 %
11.01.2016 19:54 5,7 C 5,6 C 4,4 C 95 % 14 lf 985,0 hPa 0,0 l/m 0 min 0 min 0 W/m 14,6 km/h (3 Bft) 93,62 %
11.01.2016 19:56 5,7 C 5,6 C 4,4 C 95 % 14 lf 984,9 hPa 0,0 l/m 0 min 0 min 0 W/m 16,7 km/h (3 Bft) 97,83 %
11.01.2016 19:58 5,7 C 5,6 C 4,4 C 95 % 14 lf 985,0 hPa 0,0 l/m 0 min 0 min 0 W/m 14,6 km/h (3 Bft) 95,74 %
11.01.2016 20:00 5,7 C 5,6 C 4,4 C 95 % 14 lf 985,0 hPa 0,0 l/m 0 min 0 min 0 W/m 18,8 km/h (3 Bft) 97,87 %
11.01.2016 20:02 5,7 C 5,6 C 4,4 C 95 % 14 lf 985,0 hPa 0,0 l/m 0 min 0 min 0 W/m 16,7 km/h (3 Bft) 95,74 %
11.01.2016 20:04 5,7 C 5,6 C 4,4 C 95 % 14 lf 985,0 hPa 0,0 l/m 0 min 0 min 0 W/m 18,8 km/h (3 Bft) 97,87 %
11.01.2016 20:06 5,7 C 5,6 C 4,4 C 95 % 13 lf 985,0 hPa 0,0 l/m 0 min 0 min 0 W/m 10,5 km/h (2 Bft) 95,74 %
11.01.2016 20:08 5,8 C 5,6 C 4,4 C 95 % 13 lf 985,0 hPa 0,0 l/m 0 min 0 min 0 W/m 16,7 km/h (3 Bft) 95,65 %
11.01.2016 20:10 5,8 C 5,6 C 4,4 C 95 % 13 lf 985,0 hPa 0,0 l/m 0 min 0 min 0 W/m 12,6 km/h (3 Bft) 95,74 %
11.01.2016 20:12 5,8 C 5,6 C 4,4 C 95 % 12 lf 984,9 hPa 0,0 l/m 0 min 0 min 0 W/m 18,8 km/h (3 Bft) 95,74 %
11.01.2016 20:14 5,8 C 5,6 C 4,4 C 95 % 12 lf 985,0 hPa 0,0 l/m 0 min 0 min 0 W/m 8,4 km/h (2 Bft) 93,18 %
11.01.2016 20:16 5,8 C 5,6 C 4,4 C 95 % 12 lf 985,0 hPa 0,0 l/m 0 min 0 min 0 W/m 14,6 km/h (3 Bft) 95,74 %
11.01.2016 20:18 5,8 C 5,6 C 4,4 C 95 % 11 lf 985,0 hPa 0,0 l/m 0 min 0 min 0 W/m 18,8 km/h (3 Bft) 95,74 %
11.01.2016 20:20 5,8 C 5,6 C 4,4 C 95 % 10 lf 985,1 hPa 0,0 l/m 0 min 0 min 0 W/m 18,8 km/h (3 Bft) 95,65 %
11.01.2016 20:22 5,8 C 5,6 C 4,4 C 95 % 10 lf 985,0 hPa 0,0 l/m 0 min 0 min 0 W/m 14,6 km/h (3 Bft) 93,62 %
11.01.2016 20:24 5,8 C 5,6 C 4,4 C 95 % 9 lf 985,0 hPa 0,0 l/m 0 min 0 min 0 W/m 20,9 km/h (4 Bft) 97,87 %
11.01.2016 20:26 5,8 C 5,6 C 4,4 C 95 % 9 lf 985,1 hPa 0,0 l/m 0 min 0 min 0 W/m 16,7 km/h (3 Bft) 95,74 %
11.01.2016 20:28 5,8 C 5,6 C 4,4 C 96 % 8 lf 985,0 hPa 0,0 l/m 0 min 0 min 0 W/m 18,8 km/h (3 Bft) 89,36 %
11.01.2016 20:30 5,8 C 5,6 C 4,4 C 96 % 7 lf 985,1 hPa 0,0 l/m 0 min 0 min 0 W/m 18,8 km/h (3 Bft) 95,74 %
11.01.2016 20:32 5,9 C 5,6 C 4,4 C 96 % 6 lf 985,1 hPa 0,0 l/m 0 min 0 min 0 W/m 16,7 km/h (3 Bft) 93,48 %
11.01.2016 20:34 5,9 C 6,1 C 4,4 C 96 % 5 lf 985,2 hPa 0,0 l/m 0 min 0 min 0 W/m 20,9 km/h (4 Bft) 93,62 %
11.01.2016 20:36 5,9 C 6,1 C 4,4 C 96 % 4 lf 985,2 hPa 0,0 l/m 0 min 0 min 0 W/m 18,8 km/h (3 Bft) 93,62 %
11.01.2016 20:38 5,9 C 6,1 C 4,4 C 96 % 4 lf 985,2 hPa 0,0 l/m 0 min 0 min 0 W/m 18,8 km/h (3 Bft) 87,23 %
11.01.2016 20:40 5,9 C 6,1 C 4,4 C 96 % 3 lf 985,2 hPa 0,0 l/m 0 min 0 min 0 W/m 35,6 km/h (5 Bft) 95,74 %
11.01.2016 20:42 5,9 C 6,1 C 4,4 C 96 % 3 lf 985,3 hPa 0,0 l/m 0 min 0 min 0 W/m 18,8 km/h (3 Bft) 93,62 %
11.01.2016 20:44 5,9 C 6,1 C 4,4 C 96 % 2 lf 985,3 hPa 0,0 l/m 0 min 0 min 0 W/m 20,9 km/h (4 Bft) 91,30 %
11.01.2016 20:46 5,9 C 6,1 C 4,4 C 96 % 1 lf 985,4 hPa 0,0 l/m 0 min 0 min 0 W/m 27,2 km/h (4 Bft) 93,62 %
11.01.2016 20:48 5,9 C 6,1 C 4,4 C 96 % 1 lf 985,4 hPa 0,0 l/m 0 min 0 min 0 W/m 27,2 km/h (4 Bft) 93,62 %
11.01.2016 20:50 6,0 C 6,1 C 4,4 C 96 % 1 lf 985,4 hPa 0,0 l/m 0 min 0 min 0 W/m 23,0 km/h (4 Bft) 93,62 %
11.01.2016 20:52 6,0 C 6,1 C 4,4 C 96 % 1 lf 985,5 hPa 0,0 l/m 0 min 0 min 0 W/m 23,0 km/h (4 Bft) 89,36 %
11.01.2016 20:54 6,0 C 6,1 C 4,4 C 96 % 1 lf 985,4 hPa 0,0 l/m 0 min 0 min 0 W/m 23,0 km/h (4 Bft) 91,49 %
11.01.2016 20:56 6,1 C 6,1 C 4,4 C 96 % 3 lf 985,4 hPa 0,0 l/m 0 min 0 min 0 W/m 20,9 km/h (4 Bft) 91,30 %
11.01.2016 20:58 6,1 C 6,1 C 4,4 C 96 % 2 lf 985,5 hPa 0,0 l/m 0 min 0 min 0 W/m 29,3 km/h (5 Bft) 91,49 %
11.01.2016 21:00 6,1 C 6,1 C 4,4 C 96 % 2 lf 985,5 hPa 0,0 l/m 0 min 0 min 0 W/m 18,8 km/h (3 Bft) 93,62 %
11.01.2016 21:02 6,1 C 6,1 C 4,4 C 96 % 2 lf 985,6 hPa 0,0 l/m 0 min 0 min 0 W/m 20,9 km/h (4 Bft) 91,49 %
11.01.2016 21:04 6,1 C 6,1 C 4,4 C 96 % 4 lf 985,5 hPa 0,0 l/m 0 min 2 min 0 W/m 27,2 km/h (4 Bft) 96,00 %
11.01.2016 21:06 6,1 C 5,6 C 4,4 C 96 % 13 lf 985,5 hPa 0,0 l/m 0 min 2 min 0 W/m 20,9 km/h (4 Bft) 93,48 %
11.01.2016 21:08 6,1 C 5,6 C 4,4 C 96 % 15 lf 985,6 hPa 0,0 l/m 0 min 2 min 0 W/m 29,3 km/h (5 Bft) 91,49 %
11.01.2016 21:10 6,1 C 5,6 C 4,4 C 95 % 15 lf 985,6 hPa 0,0 l/m 0 min 2 min 0 W/m 25,1 km/h (4 Bft) 95,74 %
11.01.2016 21:12 6,1 C 5,6 C 4,4 C 95 % 15 lf 985,6 hPa 0,0 l/m 0 min 2 min 0 W/m 35,6 km/h (5 Bft) 95,74 %
11.01.2016 21:14 6,1 C 5,6 C 4,4 C 95 % 15 lf 985,7 hPa 0,0 l/m 0 min 2 min 0 W/m 33,5 km/h (5 Bft) 95,74 %
11.01.2016 21:16 6,1 C 5,6 C 4,4 C 95 % 15 lf 985,7 hPa 0,2 l/m 0 min 2 min 0 W/m 29,3 km/h (5 Bft) 95,74 %
11.01.2016 21:18 6,1 C 5,6 C 4,4 C 95 % 15 lf 985,7 hPa 0,0 l/m 0 min 2 min 0 W/m 29,3 km/h (5 Bft) 100,00 %
11.01.2016 21:20 6,0 C 5,6 C 4,4 C 95 % 15 lf 985,8 hPa 0,0 l/m 0 min 2 min 0 W/m 35,6 km/h (5 Bft) 100,00 %
11.01.2016 21:22 6,0 C 5,6 C 4,4 C 95 % 15 lf 985,8 hPa 0,0 l/m 0 min 2 min 0 W/m 25,1 km/h (4 Bft) 100,00 %
11.01.2016 21:24 6,0 C 5,6 C 4,4 C 95 % 15 lf 985,8 hPa 0,0 l/m 0 min 0 min 0 W/m 20,9 km/h (4 Bft) 93,62 %
11.01.2016 21:26 6,0 C 5,6 C 4,4 C 95 % 15 lf 985,8 hPa 0,0 l/m 0 min 0 min 0 W/m 25,1 km/h (4 Bft) 95,74 %
11.01.2016 21:28 5,9 C 5,6 C 4,4 C 95 % 15 lf 985,7 hPa 0,0 l/m 0 min 0 min 0 W/m 25,1 km/h (4 Bft) 95,74 %
11.01.2016 21:30 5,9 C 5,6 C 4,4 C 95 % 15 lf 985,8 hPa 0,0 l/m 0 min 0 min 0 W/m 20,9 km/h (4 Bft) 100,00 %
11.01.2016 21:32 5,9 C 5,6 C 4,4 C 95 % 15 lf 985,8 hPa 0,0 l/m 0 min 0 min 0 W/m 18,8 km/h (3 Bft) 100,00 %
11.01.2016 21:34 5,9 C 5,6 C 4,4 C 95 % 15 lf 985,8 hPa 0,0 l/m 0 min 0 min 0 W/m 18,8 km/h (3 Bft) 97,87 %
11.01.2016 21:36 5,9 C 5,6 C 3,9 C 95 % 15 lf 985,8 hPa 0,0 l/m 0 min 0 min 0 W/m 20,9 km/h (4 Bft) 97,87 %
11.01.2016 21:38 5,9 C 5,6 C 3,9 C 95 % 15 lf 985,8 hPa 0,0 l/m 0 min 0 min 0 W/m 27,2 km/h (4 Bft) 95,74 %
11.01.2016 21:40 5,8 C 5,6 C 3,9 C 95 % 15 lf 985,8 hPa 0,0 l/m 0 min 0 min 0 W/m 27,2 km/h (4 Bft) 95,74 %
11.01.2016 21:42 5,8 C 5,6 C 3,9 C 95 % 15 lf 985,8 hPa 0,0 l/m 0 min 0 min 0 W/m 31,4 km/h (5 Bft) 97,83 %
11.01.2016 21:44 5,8 C 5,6 C 3,9 C 95 % 15 lf 985,8 hPa 0,0 l/m 0 min 0 min 0 W/m 25,1 km/h (4 Bft) 97,87 %
11.01.2016 21:46 5,8 C 5,6 C 3,9 C 95 % 15 lf 985,8 hPa 0,0 l/m 0 min 0 min 0 W/m 25,1 km/h (4 Bft) 97,87 %
11.01.2016 21:48 5,8 C 5,6 C 3,9 C 95 % 15 lf 985,8 hPa 0,0 l/m 0 min 0 min 0 W/m 18,8 km/h (3 Bft) 100,00 %
11.01.2016 21:50 5,8 C 5,6 C 3,9 C 95 % 15 lf 985,9 hPa 0,0 l/m 0 min 0 min 0 W/m 27,2 km/h (4 Bft) 97,87 %
11.01.2016 21:52 5,8 C 5,6 C 3,9 C 95 % 15 lf 986,0 hPa 0,0 l/m 0 min 0 min 0 W/m 18,8 km/h (3 Bft) 100,00 %
11.01.2016 21:54 5,8 C 5,6 C 3,9 C 95 % 15 lf 985,9 hPa 0,0 l/m 0 min 0 min 0 W/m 25,1 km/h (4 Bft) 97,87 %
11.01.2016 21:56 5,8 C 5,6 C 4,4 C 95 % 15 lf 986,0 hPa 0,0 l/m 0 min 0 min 0 W/m 23,0 km/h (4 Bft) 100,00 %
11.01.2016 21:58 5,8 C 5,6 C 4,4 C 95 % 15 lf 985,9 hPa 0,0 l/m 0 min 0 min 0 W/m 20,9 km/h (4 Bft) 97,87 %
11.01.2016 22:00 5,8 C 5,6 C 4,4 C 95 % 15 lf 985,9 hPa 0,0 l/m 0 min 0 min 0 W/m 23,0 km/h (4 Bft) 95,74 %
11.01.2016 22:02 5,8 C 5,6 C 4,4 C 95 % 15 lf 986,0 hPa 0,0 l/m 0 min 2 min 0 W/m 18,8 km/h (3 Bft) 93,62 %
11.01.2016 22:04 5,8 C 5,6 C 4,4 C 95 % 15 lf 986,0 hPa 0,0 l/m 0 min 0 min 0 W/m 20,9 km/h (4 Bft) 100,00 %
11.01.2016 22:06 5,8 C 5,6 C 4,4 C 95 % 15 lf 986,0 hPa 0,0 l/m 0 min 0 min 0 W/m 20,9 km/h (4 Bft) 95,65 %
11.01.2016 22:08 5,8 C 5,6 C 4,4 C 95 % 15 lf 986,0 hPa 0,0 l/m 0 min 0 min 0 W/m 25,1 km/h (4 Bft) 100,00 %
11.01.2016 22:10 5,8 C 5,6 C 4,4 C 95 % 15 lf 986,0 hPa 0,0 l/m 0 min 0 min 0 W/m 23,0 km/h (4 Bft) 93,62 %
11.01.2016 22:12 5,8 C 5,6 C 4,4 C 95 % 15 lf 986,0 hPa 0,0 l/m 0 min 0 min 0 W/m 20,9 km/h (4 Bft) 97,87 %
11.01.2016 22:14 5,8 C 5,6 C 4,4 C 95 % 15 lf 986,0 hPa 0,0 l/m 0 min 0 min 0 W/m 27,2 km/h (4 Bft) 95,74 %
11.01.2016 22:16 5,9 C 5,6 C 4,4 C 96 % 15 lf 986,0 hPa 0,0 l/m 0 min 0 min 0 W/m 23,0 km/h (4 Bft) 95,65 %
11.01.2016 22:18 5,9 C 5,6 C 4,4 C 96 % 15 lf 986,0 hPa 0,0 l/m 0 min 0 min 0 W/m 23,0 km/h (4 Bft) 93,62 %
11.01.2016 22:20 5,9 C 5,6 C 4,4 C 96 % 15 lf 986,1 hPa 0,0 l/m 0 min 0 min 0 W/m 16,7 km/h (3 Bft) 95,74 %
11.01.2016 22:22 5,9 C 5,6 C 4,4 C 96 % 15 lf 986,1 hPa 0,0 l/m 0 min 0 min 0 W/m 29,3 km/h (5 Bft) 95,74 %
11.01.2016 22:24 5,9 C 5,6 C 4,4 C 96 % 15 lf 986,1 hPa 0,0 l/m 0 min 0 min 0 W/m 33,5 km/h (5 Bft) 91,49 %
11.01.2016 22:26 5,9 C 5,6 C 4,4 C 96 % 15 lf 986,1 hPa 0,0 l/m 0 min 0 min 0 W/m 29,3 km/h (5 Bft) 95,74 %
11.01.2016 22:28 5,9 C 5,6 C 4,4 C 96 % 15 lf 986,1 hPa 0,0 l/m 0 min 0 min 0 W/m 31,4 km/h (5 Bft) 97,83 %
11.01.2016 22:30 5,9 C 5,6 C 4,4 C 96 % 15 lf 986,1 hPa 0,0 l/m 0 min 0 min 0 W/m 31,4 km/h (5 Bft) 95,74 %
11.01.2016 22:32 5,9 C 5,6 C 4,4 C 96 % 15 lf 986,1 hPa 0,0 l/m 0 min 0 min 0 W/m 23,0 km/h (4 Bft) 93,62 %
11.01.2016 22:34 5,9 C 5,6 C 4,4 C 96 % 15 lf 986,1 hPa 0,0 l/m 0 min 0 min 0 W/m 23,0 km/h (4 Bft) 93,62 %
11.01.2016 22:36 5,9 C 5,6 C 4,4 C 96 % 15 lf 986,2 hPa 0,0 l/m 0 min 0 min 0 W/m 23,0 km/h (4 Bft) 93,62 %
11.01.2016 22:38 5,9 C 5,6 C 4,4 C 96 % 15 lf 986,1 hPa 0,0 l/m 0 min 0 min 0 W/m 25,1 km/h (4 Bft) 95,74 %
11.01.2016 22:40 5,9 C 5,6 C 4,4 C 96 % 15 lf 986,2 hPa 0,0 l/m 0 min 0 min 0 W/m 31,4 km/h (5 Bft) 95,65 %
11.01.2016 22:42 5,9 C 5,6 C 4,4 C 96 % 15 lf 986,2 hPa 0,0 l/m 0 min 0 min 0 W/m 18,8 km/h (3 Bft) 93,62 %
11.01.2016 22:44 5,9 C 5,6 C 4,4 C 96 % 15 lf 986,2 hPa 0,0 l/m 0 min 0 min 0 W/m 25,1 km/h (4 Bft) 95,74 %
11.01.2016 22:46 5,9 C 5,6 C 3,9 C 96 % 15 lf 986,3 hPa 0,0 l/m 0 min 0 min 0 W/m 29,3 km/h (5 Bft) 95,74 %
11.01.2016 22:48 5,9 C 5,6 C 3,9 C 96 % 15 lf 986,3 hPa 0,0 l/m 0 min 0 min 0 W/m 29,3 km/h (5 Bft) 95,74 %
11.01.2016 22:50 5,9 C 5,6 C 3,9 C 96 % 15 lf 986,4 hPa 0,0 l/m 0 min 0 min 0 W/m 27,2 km/h (4 Bft) 95,74 %
11.01.2016 22:52 5,9 C 5,6 C 3,9 C 96 % 15 lf 986,4 hPa 0,0 l/m 0 min 0 min 0 W/m 25,1 km/h (4 Bft) 97,83 %
11.01.2016 22:54 5,9 C 5,6 C 3,9 C 96 % 15 lf 986,4 hPa 0,0 l/m 0 min 0 min 0 W/m 25,1 km/h (4 Bft) 97,87 %
11.01.2016 22:56 5,9 C 5,6 C 4,4 C 96 % 15 lf 986,4 hPa 0,0 l/m 0 min 0 min 0 W/m 23,0 km/h (4 Bft) 100,00 %
11.01.2016 22:58 5,9 C 5,6 C 4,4 C 96 % 15 lf 986,5 hPa 0,0 l/m 0 min 0 min 0 W/m 29,3 km/h (5 Bft) 95,74 %
11.01.2016 23:00 5,9 C 5,6 C 4,4 C 96 % 15 lf 986,6 hPa 0,0 l/m 0 min 2 min 0 W/m 35,6 km/h (5 Bft) 100,00 %
11.01.2016 23:02 5,9 C 5,6 C 4,4 C 96 % 15 lf 986,6 hPa 0,0 l/m 0 min 2 min 0 W/m 31,4 km/h (5 Bft) 93,48 %
11.01.2016 23:04 5,9 C 5,6 C 4,4 C 96 % 15 lf 986,6 hPa 0,0 l/m 0 min 2 min 0 W/m 29,3 km/h (5 Bft) 100,00 %
11.01.2016 23:06 5,9 C 5,6 C 4,4 C 96 % 15 lf 986,6 hPa 0,0 l/m 0 min 0 min 0 W/m 16,7 km/h (3 Bft) 95,74 %
11.01.2016 23:08 5,9 C 5,6 C 3,9 C 96 % 15 lf 986,6 hPa 0,0 l/m 0 min 0 min 0 W/m 29,3 km/h (5 Bft) 100,00 %
11.01.2016 23:10 5,9 C 5,6 C 3,9 C 96 % 15 lf 986,7 hPa 0,0 l/m 0 min 0 min 0 W/m 25,1 km/h (4 Bft) 97,87 %
11.01.2016 23:12 5,9 C 5,6 C 3,9 C 95 % 15 lf 986,7 hPa 0,0 l/m 0 min 0 min 0 W/m 31,4 km/h (5 Bft) 100,00 %
11.01.2016 23:14 5,9 C 5,6 C 4,4 C 95 % 15 lf 986,8 hPa 0,0 l/m 0 min 0 min 0 W/m 27,2 km/h (4 Bft) 93,48 %
11.01.2016 23:16 5,9 C 5,6 C 4,4 C 95 % 15 lf 986,8 hPa 0,0 l/m 0 min 0 min 0 W/m 29,3 km/h (5 Bft) 97,87 %
11.01.2016 23:18 5,9 C 5,6 C 4,4 C 95 % 15 lf 986,8 hPa 0,0 l/m 0 min 0 min 0 W/m 27,2 km/h (4 Bft) 100,00 %
11.01.2016 23:20 5,9 C 5,6 C 4,4 C 95 % 15 lf 986,9 hPa 0,0 l/m 0 min 0 min 0 W/m 29,3 km/h (5 Bft) 100,00 %
11.01.2016 23:22 5,9 C 5,6 C 4,4 C 95 % 15 lf 986,7 hPa 0,0 l/m 0 min 0 min 0 W/m 20,9 km/h (4 Bft) 95,74 %
11.01.2016 23:24 5,9 C 5,6 C 4,4 C 95 % 15 lf 986,8 hPa 0,0 l/m 0 min 0 min 0 W/m 25,1 km/h (4 Bft) 97,87 %
11.01.2016 23:26 5,9 C 5,6 C 4,4 C 95 % 15 lf 986,8 hPa 0,0 l/m 0 min 0 min 0 W/m 23,0 km/h (4 Bft) 97,83 %
11.01.2016 23:28 5,9 C 5,6 C 3,9 C 95 % 15 lf 986,8 hPa 0,0 l/m 0 min 0 min 0 W/m 29,3 km/h (5 Bft) 95,74 %
11.01.2016 23:30 5,9 C 5,6 C 3,9 C 95 % 15 lf 986,8 hPa 0,0 l/m 0 min 0 min 0 W/m 23,0 km/h (4 Bft) 95,74 %
11.01.2016 23:32 5,9 C 5,6 C 3,9 C 95 % 15 lf 986,9 hPa 0,0 l/m 0 min 0 min 0 W/m 23,0 km/h (4 Bft) 91,49 %
11.01.2016 23:34 5,9 C 5,6 C 3,9 C 95 % 15 lf 986,9 hPa 0,0 l/m 0 min 0 min 0 W/m 33,5 km/h (5 Bft) 97,87 %
11.01.2016 23:36 5,9 C 5,6 C 3,9 C 95 % 15 lf 986,9 hPa 0,0 l/m 0 min 0 min 0 W/m 35,6 km/h (5 Bft) 97,87 %
11.01.2016 23:38 5,9 C 5,6 C 3,9 C 95 % 15 lf 986,9 hPa 0,0 l/m 0 min 2 min 0 W/m 31,4 km/h (5 Bft) 95,65 %
11.01.2016 23:40 5,9 C 5,6 C 3,9 C 95 % 14 lf 987,0 hPa 0,0 l/m 0 min 0 min 0 W/m 25,1 km/h (4 Bft) 97,87 %
11.01.2016 23:42 5,9 C 5,6 C 3,9 C 95 % 14 lf 986,9 hPa 0,0 l/m 0 min 0 min 0 W/m 29,3 km/h (5 Bft) 97,87 %
11.01.2016 23:44 5,9 C 5,6 C 3,9 C 95 % 13 lf 987,0 hPa 0,0 l/m 0 min 0 min 0 W/m 23,0 km/h (4 Bft) 95,74 %
11.01.2016 23:46 5,9 C 5,6 C 3,9 C 95 % 12 lf 987,1 hPa 0,0 l/m 0 min 2 min 0 W/m 27,2 km/h (4 Bft) 95,74 %
11.01.2016 23:48 5,9 C 5,6 C 3,9 C 95 % 12 lf 987,1 hPa 0,0 l/m 0 min 0 min 0 W/m 23,0 km/h (4 Bft) 93,62 %
11.01.2016 23:50 5,9 C 5,6 C 3,9 C 94 % 10 lf 987,1 hPa 0,0 l/m 0 min 0 min 0 W/m 29,3 km/h (5 Bft) 97,83 %
11.01.2016 23:52 5,9 C 5,6 C 3,9 C 94 % 8 lf 987,1 hPa 0,0 l/m 0 min 0 min 0 W/m 27,2 km/h (4 Bft) 97,87 %
11.01.2016 23:54 5,9 C 5,6 C 3,9 C 94 % 7 lf 987,2 hPa 0,0 l/m 0 min 0 min 0 W/m 25,1 km/h (4 Bft) 97,87 %
11.01.2016 23:56 5,9 C 5,6 C 3,9 C 94 % 5 lf 987,1 hPa 0,0 l/m 0 min 0 min 0 W/m 20,9 km/h (4 Bft) 93,62 %
11.01.2016 23:58 5,9 C 5,6 C 3,9 C 94 % 4 lf 987,2 hPa 0,0 l/m 0 min 0 min 0 W/m 37,7 km/h (5 Bft) 97,87 %
_ Min-Zeit 06:36 06:20 04:52 00:00 00:06 15:28 - - - - 00:54 11:34
Minimum _ 1,6 C 1,1 C 0,0 C 93 % 0 lf 983,8 hPa - - - - 4,2 km/h (1 Bft) 86,96 %
_ Max-Zeit 16:34 15:00 14:46 14:16 11:36 00:14 04:42 00:00 10:18 12:52 23:58 00:10
Maximum _ 6,7 C 6,7 C 5,0 C 98 % 15 lf 992,5 hPa 0,2 l/m 0 min 2 min 104 W/m 37,7 km/h
W-SW (5 Bft)
100,00 %
Durchschnitt _ 4,5 C 4,5 C 3,0 C 95 % 8 lf 987,3 hPa #5,6 l/m #0 min. #4:20 h 34 W/m 16,9 km/h (3 Bft) 96,05 %
© 2016 W. Hausmann